GFSFLT1_sfc_rhum_000.txt.gz
RH
55 58 56 56 56 56 56 58 57 61 60 59 62 62 65 62 42 44 52 46 60 57 55 56 58 56 58 59 57 58 59 59 58
58 54 64 62 62 61 59 60 59 60 59 58 62 63 64 39 41 43 46 49 52 53 55 55 55 54 55 55 54 55 58 57 58
55 58 68 64 62 57 55 54 60 60 59 58 62 62 61 44 39 45 46 54 50 52 53 53 53 54 54 54 52 54 54 55 55
70 75 70 67 59 55 48 47 52 58 58 57 62 63 63 40 38 34 36 55 47 50 52 49 52 53 55 54 51 52 51 52 52
74 72 70 68 61 51 44 48 53 50 52 51 59 66 63 36 41 39 41 53 48 49 48 46 47 48 49 48 48 49 49 50 52
61 78 77 68 64 53 47 47 48 51 53 60 63 70 26 33 36 37 68 54 49 46 46 45 45 45 45 47 47 45 48 48 48
50 67 80 78 75 66 57 62 61 63 27 39 66 31 26 27 36 37 67 60 52 50 47 46 46 47 47 48 49 50 47 49 50
50 47 47 48 79 46 54 49 33 33 28 27 28 28 24 19 30 44 68 70 55 52 48 47 48 50 50 50 50 51 52 54 52
44 44 43 47 43 42 42 37 37 33 28 24 22 23 24 20 21 34 72 74 66 56 53 48 48 50 52 52 52 53 54 54 54
42 44 44 44 44 41 40 40 40 40 28 25 24 24 24 24 24 21 66 70 69 63 56 48 48 48 50 51 52 54 55 56 57
43 45 47 47 47 44 44 41 42 43 32 28 26 25 24 25 26 24 27 62 61 59 55 51 48 49 49 50 51 53 54 55 58
46 46 47 48 46 46 46 47 47 44 40 35 28 26 24 23 25 25 24 29 66 63 54 52 51 51 50 50 50 51 52 55 56
53 47 47 46 47 47 47 48 48 46 44 42 36 32 29 27 24 24 24 26 26 47 60 57 54 52 52 51 50 50 52 59 59
54 52 47 45 48 49 50 50 49 51 48 46 42 40 40 39 31 29 27 29 32 31 45 66 66 61 56 54 52 52 52 58 59
54 54 54 48 50 52 52 55 51 53 49 44 44 42 42 42 42 35 30 30 33 35 37 37 40 70 65 60 56 55 55 55 56
57 57 55 55 54 53 53 55 58 55 55 59 56 52 49 49 48 43 38 35 35 36 34 34 33 33 64 57 61 60 58 59 59
58 59 59 57 59 58 56 57 59 58 54 63 66 72 50 46 46 44 42 39 34 35 37 36 34 36 38 46 61 59 63 64 63
61 62 61 60 60 62 61 60 65 65 60 61 64 69 65 53 42 44 39 37 38 39 40 44 41 38 40 49 55 69 67 65 64
61 63 62 62 62 64 63 61 63 67 71 69 61 66 59 65 62 50 49 44 42 40 42 44 43 43 46 58 68 72 67 68 67
61 63 65 64 62 62 62 63 65 62 73 75 72 67 68 67 75 72 62 51 48 46 44 42 43 44 47 51 60 71 67 66 64

GFSFLT1_sfc_rhum_003.txt.gz
RH
55 53 52 55 55 57 54 57 56 62 60 59 62 61 61 64 41 45 50 53 54 55 57 57 55 55 54 55 57 58 58 58 59
55 58 62 61 63 60 59 60 58 60 59 59 61 61 61 49 40 43 45 51 53 54 54 54 54 53 53 54 52 55 55 55 56
57 62 67 63 62 58 55 56 60 60 60 57 61 60 63 44 37 43 50 55 51 52 51 52 52 53 53 52 51 52 52 52 51
68 72 69 67 60 56 50 48 51 59 61 60 62 62 63 50 36 34 43 58 48 51 48 47 50 51 54 51 49 49 49 49 50
72 72 72 67 62 54 45 48 54 58 56 57 58 65 66 42 40 39 52 54 49 48 47 45 46 46 47 49 47 47 47 48 49
65 76 73 66 63 54 48 48 51 53 60 60 63 74 38 30 36 38 67 56 51 47 46 44 44 46 47 48 49 48 47 48 48
47 70 79 72 70 65 57 54 57 59 32 43 69 42 29 26 35 38 67 64 55 53 51 48 47 48 50 52 51 52 51 51 51
48 48 56 55 81 52 57 56 41 35 30 28 33 30 26 22 27 42 65 65 63 56 56 52 51 51 52 53 53 53 53 53 55
41 42 44 45 44 44 43 38 36 34 30 26 23 24 25 25 23 32 74 68 65 62 57 56 51 51 52 54 54 55 56 56 57
39 40 41 42 41 39 39 38 36 38 33 27 24 24 23 26 27 26 73 72 64 62 57 56 53 50 52 53 54 56 56 57 58
41 40 43 44 44 42 41 39 39 40 38 30 26 26 27 26 28 28 35 68 58 52 50 50 51 52 51 52 52 54 54 56 57
46 43 45 46 44 44 44 44 42 41 41 37 30 28 26 27 28 28 28 39 71 62 51 49 50 51 52 52 52 52 55 57 58
50 48 47 45 47 46 48 47 48 48 46 45 44 36 32 28 26 27 28 34 30 60 64 57 53 52 52 52 52 53 57 62 64
51 52 50 44 50 51 51 50 50 54 53 49 45 43 42 40 33 33 32 34 39 38 53 74 70 66 56 54 53 53 54 62 64
52 54 54 51 52 53 54 57 53 53 52 44 42 45 45 44 45 43 39 40 41 42 45 47 56 74 63 59 58 55 55 60 64
54 56 56 55 56 53 53 56 60 60 54 58 58 56 52 51 50 50 49 48 42 39 40 44 45 45 75 69 60 59 59 58 58
52 56 59 57 59 58 56 57 62 62 58 64 68 73 61 54 51 50 51 50 48 45 43 41 42 47 49 60 71 65 62 63 62
55 57 59 61 61 64 64 63 67 70 65 61 68 74 74 60 56 54 50 48 47 46 44 47 49 49 48 60 63 74 67 65 67
56 58 60 62 63 65 66 64 66 69 74 70 63 64 60 68 66 60 54 48 45 52 52 50 51 53 54 64 70 76 76 66 65
57 58 63 64 65 65 67 67 69 67 73 73 76 73 73 70 76 76 66 62 56 54 50 49 50 50 55 64 70 78 72 69 67

GFSFLT1_sfc_rhum_006.txt.gz
RH
55 51 51 56 55 57 55 58 58 56 60 59 59 59 59 65 68 64 66 64 55 57 57 57 55 56 56 53 56 56 56 57 55
55 58 58 59 61 59 59 58 58 61 59 60 61 60 63 66 63 62 67 63 54 53 53 54 55 53 54 51 53 53 53 53 53
58 61 66 63 62 59 57 58 60 61 60 58 61 60 68 56 55 64 68 62 52 51 51 53 54 54 53 50 50 50 51 51 51
66 68 69 69 61 58 55 51 56 62 62 61 63 62 70 71 60 50 70 63 49 51 48 49 52 52 52 49 47 47 48 48 49
72 76 75 70 65 59 51 49 52 60 64 64 62 70 72 68 57 61 72 58 50 49 47 45 46 47 47 47 47 47 46 46 47
72 78 78 71 66 60 52 52 55 60 67 65 68 74 79 58 57 69 69 57 52 50 49 46 45 47 47 48 49 50 48 48 49
65 83 82 72 71 66 57 55 57 66 61 65 75 87 68 55 52 72 70 59 56 54 53 50 48 48 50 51 52 53 53 52 52
74 90 88 92 89 86 72 74 77 68 58 60 75 71 56 46 41 60 72 61 58 58 57 57 53 52 52 53 54 54 54 54 54
70 71 79 80 81 85 79 73 66 55 46 47 41 45 44 45 38 57 77 65 57 59 60 59 58 54 53 54 55 56 56 57 58
63 65 67 68 66 68 68 64 58 57 48 43 39 36 37 37 43 40 81 77 64 57 57 58 58 58 54 54 55 56 57 58 58
65 63 65 68 66 65 64 62 60 60 60 52 42 37 37 38 39 45 52 77 70 55 52 52 53 54 55 54 54 55 56 57 58
65 65 66 68 66 64 66 63 63 63 59 62 51 43 39 40 38 39 43 62 74 65 50 49 49 50 52 53 53 54 61 63 64
70 72 68 67 68 69 71 71 72 72 71 70 67 55 49 44 41 41 38 42 48 70 67 61 53 51 52 52 52 54 60 64 65
63 68 68 64 69 72 71 73 75 78 78 71 68 68 64 55 37 42 42 45 48 45 65 72 68 65 57 53 53 53 59 63 65
62 64 66 65 65 71 75 75 77 75 77 59 58 65 63 66 66 61 50 54 50 54 50 56 68 76 67 57 54 54 56 62 65
60 63 65 68 67 64 65 70 74 74 80 84 84 82 75 73 67 70 69 63 61 60 50 50 49 50 75 71 61 57 57 58 62
61 64 67 68 70 70 66 68 75 74 83 79 92 86 82 71 64 60 57 58 58 58 52 50 55 57 56 63 75 71 59 58 59
67 65 67 70 70 73 73 69 74 78 82 70 74 90 89 89 76 66 60 60 75 73 65 58 54 53 56 62 62 79 75 61 63
65 67 69 70 72 74 74 73 71 70 75 76 67 65 73 80 84 79 71 63 56 56 61 51 57 54 59 64 69 73 73 64 62
66 68 70 71 72 71 74 73 72 70 75 75 74 76 76 75 80 82 72 69 62 60 58 59 60 54 61 63 65 76 75 68 66

GFSFLT1_sfc_rhum_009.txt.gz
RH
55 53 52 58 58 58 57 60 56 54 59 58 62 56 57 64 68 76 66 66 56 56 56 55 55 54 53 57 56 56 55 54 55
58 58 59 61 62 60 60 60 61 61 62 58 62 60 62 71 70 78 70 68 54 53 54 54 52 54 51 54 54 54 52 51 52
61 60 64 64 65 63 60 60 61 63 61 62 65 62 68 63 67 72 72 65 55 52 52 53 54 52 51 50 52 52 51 50 50
63 65 68 67 67 61 60 56 60 65 64 63 66 66 72 75 68 63 73 67 54 52 50 52 53 54 53 48 48 48 50 50 49
73 77 76 72 68 64 60 54 53 59 65 67 67 75 75 78 61 71 75 59 53 53 50 50 50 52 51 51 51 49 48 48 48
82 84 84 76 70 66 59 53 55 65 73 72 73 75 88 83 62 72 70 60 54 53 53 50 49 50 50 50 52 53 52 51 50
72 85 85 76 74 71 62 56 60 71 74 79 79 86 87 80 66 70 73 61 54 54 53 52 50 49 51 52 53 54 54 55 54
88 95 92 95 87 90 76 74 75 80 80 68 69 84 88 72 60 57 79 64 57 55 57 58 56 54 54 54 55 56 56 56 56
90 90 94 97 94 96 95 91 86 84 71 67 71 77 74 64 55 49 82 72 61 57 57 60 62 61 58 56 56 57 58 58 59
76 81 87 89 86 89 93 86 77 74 66 53 51 50 52 52 50 47 80 79 69 58 57 58 60 61 62 59 57 58 59 60 60
72 72 71 76 74 76 77 75 70 67 65 53 50 46 44 42 42 48 52 81 76 62 54 54 55 57 58 59 59 61 59 60 61
70 68 69 69 72 70 73 73 71 70 65 70 63 50 44 40 40 42 48 55 78 73 53 50 51 52 54 55 55 62 65 67 67
72 70 66 70 75 73 77 76 78 78 74 75 75 68 56 49 43 40 39 43 41 67 71 62 60 56 53 53 52 56 63 66 67
64 66 70 73 77 74 74 78 76 77 77 75 72 70 68 61 47 47 42 41 41 45 57 73 68 64 61 50 52 53 61 63 66
68 66 70 79 74 72 85 73 85 72 72 65 62 72 66 65 65 56 45 42 44 44 42 46 62 72 67 60 51 51 58 63 65
72 67 78 83 74 68 69 72 80 74 90 88 78 80 77 71 65 61 60 58 55 50 47 47 48 48 74 68 63 58 55 61 64
70 67 70 74 73 76 74 74 73 74 86 77 94 83 73 74 67 68 68 64 61 62 60 54 51 52 54 60 71 68 61 56 57
72 68 68 71 76 74 77 77 76 76 85 80 75 95 93 94 87 77 66 64 65 64 60 59 57 54 56 63 64 71 71 62 58
69 69 72 75 77 77 76 76 79 74 77 83 74 70 84 82 83 89 84 75 67 66 70 67 65 59 59 63 66 68 72 64 59
76 74 73 77 78 78 78 74 75 78 79 77 77 80 80 75 80 84 70 84 72 65 64 58 56 53 55 60 63 72 69 63 61

GFSFLT1_sfc_rhum_012.txt.gz
RH
56 54 57 59 59 59 61 60 56 58 56 55 62 55 58 66 72 82 75 70 56 54 55 56 55 52 54 55 53 54 54 54 54
59 57 57 61 61 61 59 62 62 57 62 63 60 60 62 72 72 79 76 72 56 55 56 54 53 52 50 54 52 52 51 51 51
60 61 62 64 67 66 63 61 63 66 65 65 66 66 70 68 69 82 76 70 56 54 54 56 55 53 50 52 52 52 51 50 50
63 62 68 67 68 66 65 61 62 65 66 65 67 72 74 79 70 67 79 71 56 56 55 56 57 56 54 50 52 52 52 52 52
70 76 75 71 72 68 66 63 58 61 67 67 69 77 80 85 72 66 77 69 55 56 54 54 56 56 57 54 53 52 52 53 54
86 86 84 78 74 72 68 63 58 62 70 74 77 80 93 89 74 64 74 67 56 56 57 54 53 54 55 54 55 55 55 54 54
80 90 86 80 78 76 70 66 62 70 86 88 83 94 90 90 80 68 62 70 61 58 57 57 54 53 54 55 55 56 56 57 56
90 96 94 95 89 94 82 82 80 83 89 84 80 83 92 93 77 59 62 64 65 60 57 58 57 54 54 55 56 58 58 58 58
93 93 90 95 93 96 96 97 90 88 87 87 76 71 77 79 71 66 64 66 68 60 59 59 60 60 58 57 57 59 59 60 60
90 93 95 95 97 97 98 97 91 92 90 78 71 64 71 73 68 62 65 66 74 62 58 59 59 62 64 63 61 60 60 61 61
81 80 85 88 94 91 90 91 88 85 81 73 64 57 55 56 54 53 53 62 77 71 54 54 57 58 59 62 65 69 65 62 64
70 73 73 77 88 87 88 88 87 86 77 73 66 56 52 49 46 43 42 49 69 79 60 55 58 60 57 58 60 67 70 70 70
75 77 77 76 80 82 82 77 79 80 77 67 71 63 66 58 49 43 40 41 40 52 73 68 62 61 57 53 55 62 65 68 70
74 77 77 79 78 78 78 76 80 70 78 75 72 73 71 68 58 54 47 42 42 42 51 65 71 65 62 53 50 56 61 64 66
73 69 73 82 80 76 87 78 83 75 71 69 66 68 72 67 67 64 57 53 48 44 41 44 53 71 67 63 56 57 59 61 63
73 69 70 83 78 70 71 73 76 76 93 94 75 78 78 75 70 67 66 62 58 52 48 46 45 44 65 72 67 63 62 62 63
72 71 70 72 77 76 75 78 76 77 89 87 82 86 72 70 72 69 69 66 62 62 59 52 48 48 50 53 70 70 66 60 61
80 74 72 71 78 76 76 82 83 81 74 81 82 96 93 91 89 87 76 73 75 72 67 63 62 58 56 62 64 71 71 65 62
83 79 79 79 77 81 78 76 84 82 86 78 79 75 78 91 85 80 88 84 78 74 72 70 67 64 64 65 67 69 74 69 67
73 79 86 89 84 83 82 80 84 83 86 84 83 86 86 84 93 94 77 72 76 72 70 68 68 67 68 69 69 73 74 68 66

GFSFLT1_sfc_rhum_015.txt.gz
RH
58 56 57 60 60 60 64 62 58 57 57 60 61 58 56 68 74 87 83 77 60 56 55 56 55 54 55 55 54 55 52 53 53
60 57 58 62 62 62 60 64 64 60 60 59 62 61 65 74 75 86 88 75 59 57 56 57 56 54 53 56 54 53 53 53 52
58 64 62 63 64 64 63 61 63 65 65 66 66 67 74 71 71 76 85 75 60 56 58 59 57 56 53 56 56 54 54 52 52
58 64 64 67 68 70 68 66 63 63 66 67 66 75 79 85 77 68 84 73 63 56 56 58 59 58 57 55 56 56 56 55 54
69 74 73 70 72 72 70 68 65 62 64 68 70 76 82 90 82 72 81 71 68 57 58 57 58 60 59 57 54 55 55 56 56
86 86 85 77 73 74 73 71 68 68 70 73 76 80 96 94 87 73 66 69 68 60 56 59 57 58 59 60 58 57 55 55 55
81 90 88 80 78 78 74 72 72 74 85 90 84 96 96 96 92 80 67 63 66 63 59 60 59 57 57 59 58 58 59 58 59
96 98 96 97 94 97 92 92 93 87 91 94 94 90 94 98 94 77 68 64 62 64 62 62 61 60 57 57 58 58 58 59 60
97 96 96 97 98 97 98 98 96 93 90 92 92 86 81 79 79 85 73 66 60 60 63 63 63 61 60 58 57 58 59 60 60
96 96 97 97 97 98 98 98 96 96 94 92 90 82 75 71 67 72 72 69 63 59 59 63 61 61 62 62 61 64 61 61 62
96 94 95 98 98 97 97 95 94 91 93 87 85 76 68 65 65 66 68 69 69 61 59 57 57 57 60 63 69 71 71 67 67
83 89 87 86 93 94 95 96 96 97 91 87 79 76 70 62 57 54 51 52 65 67 60 56 60 63 58 58 65 68 71 73 74
85 81 80 79 84 84 88 85 88 89 85 78 76 71 67 64 59 53 50 48 45 50 60 66 63 66 63 52 56 62 66 69 71
77 78 74 83 79 80 79 80 81 75 80 81 73 73 71 67 61 62 59 55 52 49 54 62 66 67 64 57 54 58 60 62 66
78 72 74 83 83 79 86 79 84 77 71 69 70 71 72 73 70 68 64 63 58 53 50 49 52 66 66 64 60 61 61 61 62
78 73 73 81 78 71 72 82 81 81 90 84 75 73 72 74 73 69 68 68 66 64 58 53 51 51 64 68 65 66 66 64 64
83 83 78 77 82 82 81 83 81 80 91 83 84 93 78 82 78 74 73 72 69 69 67 64 57 56 56 58 65 68 66 62 66
86 91 92 88 90 86 82 88 92 89 84 87 86 98 92 88 84 89 80 76 78 76 71 68 66 62 59 63 64 69 69 63 64
65 67 72 81 89 96 92 84 89 90 93 86 81 80 82 94 89 70 82 78 76 74 76 75 72 68 69 70 71 72 74 70 69
62 62 67 67 64 62 67 88 93 89 92 91 90 89 90 88 97 94 84 74 77 72 73 70 70 68 69 72 72 76 77 72 71

GFSFLT1_sfc_rhum_018.txt.gz
RH
58 58 57 58 61 61 62 65 63 57 60 59 61 63 57 67 76 82 83 84 71 55 57 59 59 56 55 56 54 57 56 55 55
58 59 58 60 62 62 61 62 65 63 62 62 60 62 67 78 79 77 92 89 66 58 56 57 56 54 54 56 55 56 55 55 55
57 63 65 61 64 64 64 63 61 65 65 63 66 68 76 75 77 74 89 82 67 61 58 59 58 56 55 57 58 56 55 55 55
62 60 64 64 66 68 71 69 67 64 64 65 67 73 78 89 84 68 82 80 70 65 57 58 60 59 58 56 58 58 57 56 56
69 74 74 67 68 72 72 72 70 68 65 65 71 77 81 93 92 83 76 74 72 67 61 58 59 60 61 60 57 58 58 58 57
86 85 84 79 74 70 71 72 72 75 77 73 74 80 96 95 97 90 73 65 71 68 66 60 60 59 60 61 62 59 57 57 58
84 88 84 79 80 78 74 73 77 82 93 91 81 96 96 98 98 96 79 68 63 66 66 65 61 62 60 60 61 62 60 59 58
96 98 96 96 94 98 95 96 97 95 95 94 95 95 94 98 98 91 81 73 64 63 62 64 65 63 64 61 59 60 61 60 60
97 98 97 97 97 97 98 98 97 96 95 94 94 94 92 87 84 88 77 74 68 60 62 61 63 67 66 64 62 63 64 61 61
97 98 98 98 97 98 97 98 96 97 96 95 95 88 88 85 76 72 72 70 66 63 59 58 60 60 67 68 69 69 68 65 67
98 97 97 98 97 95 97 96 96 96 96 93 94 87 83 79 73 67 67 68 67 66 63 60 55 55 57 66 69 71 72 72 70
94 97 97 91 97 95 97 97 97 97 95 93 87 86 84 78 72 66 62 63 71 69 65 61 59 58 55 56 63 66 70 72 74
94 94 91 87 93 95 95 92 94 94 90 86 82 81 77 74 72 66 62 59 56 58 64 64 62 62 58 55 57 63 64 66 69
90 88 83 88 92 91 87 82 86 74 76 84 78 76 78 72 65 66 65 61 59 56 60 68 67 69 67 60 58 61 62 62 63
87 85 83 85 84 83 85 82 74 79 73 71 70 67 69 74 76 72 66 66 66 62 59 59 61 71 69 66 64 66 66 65 64
85 86 85 86 86 82 74 73 81 80 78 87 84 78 72 72 74 74 74 72 70 70 67 64 62 60 69 70 67 66 67 69 68
72 88 92 95 96 95 94 95 88 84 87 88 90 95 83 85 79 77 77 76 72 72 71 70 66 64 63 64 70 71 68 67 68
64 68 74 79 90 96 96 97 94 95 84 86 93 96 91 83 82 90 83 80 78 77 74 73 72 69 65 68 69 72 72 68 68
63 66 70 74 75 73 74 65 88 92 92 88 84 90 91 90 90 74 76 88 82 79 76 76 74 72 72 71 72 73 75 71 71
64 65 73 74 74 77 80 77 80 85 86 89 92 91 88 88 93 93 80 75 76 78 75 74 73 73 72 73 73 77 77 72 72

GFSFLT1_sfc_rhum_021.txt.gz
RH
55 55 57 56 60 61 60 62 63 62 58 60 60 64 61 64 56 54 60 60 64 65 57 58 62 62 59 58 55 55 58 54 55
52 59 56 57 61 61 61 60 63 65 64 63 64 64 70 55 54 52 59 63 74 65 58 58 58 57 56 57 56 57 56 56 56
55 58 62 63 61 63 63 64 62 61 63 63 63 63 73 62 58 55 55 71 77 66 63 59 59 59 58 56 59 57 57 56 57
66 60 61 64 63 66 70 71 69 67 65 64 66 73 74 60 64 60 50 63 75 71 66 60 60 61 60 59 57 60 59 57 57
71 77 74 67 67 68 71 72 72 70 70 69 72 76 79 56 62 65 59 68 64 71 69 67 61 60 60 62 61 59 60 60 59
67 77 81 78 75 73 71 71 72 77 80 77 78 81 51 55 62 63 73 76 66 63 69 67 66 62 62 61 63 63 59 59 60
70 78 83 79 78 81 78 76 77 80 64 64 74 59 55 54 56 59 79 80 71 64 63 66 67 66 65 63 61 62 64 63 60
72 72 70 71 78 65 66 67 64 66 64 65 62 62 59 54 53 57 77 77 74 67 62 64 64 65 66 66 64 62 62 63 64
73 71 70 72 66 70 69 64 63 65 64 64 63 62 60 56 54 54 74 72 67 65 64 61 61 64 65 67 70 72 70 69 69
70 69 69 69 68 67 67 66 64 63 62 62 64 64 62 59 57 54 72 74 69 62 59 60 58 56 60 65 70 72 74 72 70
73 70 69 69 68 65 66 65 65 65 63 63 62 63 61 60 59 56 54 72 73 70 66 60 57 58 57 59 66 69 73 74 74
74 71 69 67 66 66 67 67 69 69 66 67 62 60 58 59 58 57 55 54 73 73 71 68 64 61 59 58 62 64 66 71 74
71 70 67 65 66 66 66 68 75 76 74 71 68 68 66 61 56 55 54 55 52 61 71 71 69 67 64 62 60 64 65 66 67
68 65 64 63 66 67 68 71 70 69 66 66 64 65 65 62 57 57 56 56 57 53 62 72 73 73 71 66 63 66 66 66 66
67 67 68 68 70 68 69 72 68 68 69 67 67 65 63 62 61 60 56 56 58 57 58 56 56 74 72 69 68 68 71 70 69
55 55 54 57 63 65 66 70 73 69 68 84 79 72 64 63 62 60 59 61 61 59 57 57 55 54 72 72 71 71 70 73 74
45 51 51 50 52 51 52 57 64 62 62 83 89 88 65 54 68 65 63 60 58 59 59 58 58 58 57 62 73 75 72 71 70
49 52 51 52 53 54 55 56 62 62 56 57 75 80 75 77 61 60 60 59 62 61 61 61 60 59 59 65 67 76 76 72 71
47 51 53 52 53 52 53 48 58 62 65 60 48 66 70 77 75 46 54 52 56 57 56 58 60 61 62 69 74 75 76 74 74
47 49 52 50 49 49 53 53 56 56 62 65 67 69 70 67 80 82 62 56 50 54 54 52 53 58 61 64 70 79 80 78 78

GFSFLT1_sfc_rhum_024.txt.gz
RH
52 55 58 56 60 60 60 58 66 64 63 58 64 67 66 62 44 44 44 54 52 64 64 59 60 63 63 60 60 57 57 59 57
52 59 58 58 59 62 61 61 60 62 65 64 64 66 70 56 44 41 43 48 60 68 64 59 60 59 58 58 59 58 59 58 57
56 55 60 64 62 63 63 64 64 63 63 62 60 65 72 56 48 47 44 54 67 72 66 66 61 60 60 60 59 60 59 59 58
66 67 63 63 64 63 68 72 71 70 69 67 67 73 76 55 47 44 45 60 63 70 70 66 66 62 62 62 61 59 61 60 59
70 74 70 70 67 68 69 70 72 72 71 71 74 78 80 48 44 43 44 61 64 64 66 69 66 67 62 62 63 63 61 62 62
53 69 76 75 73 72 71 72 73 79 81 79 81 83 47 36 36 37 59 64 72 67 65 66 66 65 67 65 63 64 64 62 62
54 70 80 78 78 77 76 75 76 81 48 45 74 53 42 39 37 33 61 61 72 68 66 65 66 67 66 68 66 64 64 65 64
47 49 52 54 72 53 52 51 48 46 45 44 42 43 42 41 40 44 64 60 66 63 65 64 64 66 66 66 67 71 70 67 68
46 47 51 52 48 48 49 46 45 46 46 44 43 43 43 43 42 45 70 64 69 65 59 60 63 63 64 66 69 72 73 74 72
44 47 47 48 48 47 48 48 46 47 45 44 45 47 46 46 45 44 70 73 69 72 67 62 58 59 61 62 68 71 74 75 76
51 51 51 50 48 47 47 48 48 49 46 46 45 46 46 46 47 45 45 76 74 73 74 70 66 63 60 59 65 67 71 73 75
56 53 53 49 47 48 48 48 49 52 52 52 48 46 45 45 46 46 45 47 76 76 72 74 71 68 67 64 64 67 68 69 72
54 52 50 47 49 50 52 53 55 56 54 53 52 50 49 48 47 47 45 46 46 60 75 73 73 73 71 69 68 70 69 69 69
51 52 54 54 55 56 55 54 54 56 53 53 50 50 50 50 46 48 48 48 50 48 59 77 78 76 72 73 72 71 73 72 71
52 46 42 43 45 44 44 47 46 47 46 44 44 46 45 45 46 46 43 45 49 49 52 51 51 78 76 73 73 73 72 76 76
36 36 34 34 35 35 34 35 37 35 35 37 38 37 37 44 36 39 49 43 41 43 44 45 47 49 73 75 71 71 73 73 76
33 36 35 36 35 36 37 39 42 37 36 42 44 41 37 30 37 34 32 35 33 38 48 48 48 52 57 64 73 73 70 72 72
35 37 36 37 38 38 39 39 46 45 41 38 45 54 49 49 37 35 32 32 35 34 36 38 40 42 46 62 63 76 78 74 74
32 33 33 32 32 32 33 29 35 35 38 36 32 43 45 55 55 35 38 32 36 36 35 34 36 37 39 57 69 76 76 75 74
29 28 30 27 25 27 28 31 32 28 31 36 40 43 44 43 46 55 37 34 30 30 32 34 36 37 39 43 52 74 74 73 75

GFSFLT1_sfc_rhum_027.txt.gz
RH
52 56 59 58 60 61 60 59 62 65 65 64 60 62 68 69 49 44 43 45 53 54 60 65 60 60 63 62 60 60 57 57 58
52 61 58 58 60 62 62 62 62 60 62 64 63 64 73 55 48 47 44 45 51 58 63 63 60 60 59 59 59 59 58 58 59
58 56 61 63 64 62 65 66 66 65 64 64 64 66 70 54 48 50 49 56 51 61 66 66 67 64 62 61 61 59 61 60 59
61 65 66 62 64 65 66 69 72 71 70 70 71 75 78 60 50 46 45 62 54 57 64 67 66 67 66 62 62 62 61 62 61
68 72 72 68 69 68 69 69 69 71 74 74 77 80 82 59 50 47 45 62 55 58 62 65 66 65 66 68 63 63 63 62 63
50 64 74 71 71 70 70 70 71 78 83 82 82 84 58 48 40 37 54 59 56 61 65 65 65 66 66 70 70 65 64 64 64
46 65 77 76 78 77 75 73 76 80 56 49 78 62 50 43 42 39 58 53 52 59 65 66 65 66 67 70 70 68 69 66 65
42 45 47 54 72 58 56 58 60 50 45 45 42 41 40 41 43 46 66 58 53 57 61 62 64 65 65 66 67 72 73 74 72
41 41 44 48 47 48 53 48 46 46 45 44 43 42 42 43 44 47 71 69 59 61 65 66 62 61 64 64 66 72 74 74 76
40 42 43 45 45 46 48 49 48 47 44 44 44 46 45 46 47 47 69 77 70 64 66 70 69 65 62 63 69 71 73 74 75
49 49 49 48 47 46 47 48 49 50 47 47 45 44 44 44 45 45 47 75 77 71 67 68 72 72 68 66 68 70 72 72 74
54 52 53 50 46 46 48 49 50 53 53 52 48 46 44 46 47 48 48 50 74 78 70 68 69 72 75 72 71 72 71 71 71
51 51 50 49 52 53 58 58 55 52 49 47 46 44 44 43 42 44 44 48 47 56 80 77 70 68 68 71 73 74 75 74 72
52 53 51 44 48 44 44 42 42 45 42 41 38 39 41 42 37 40 41 45 50 49 60 75 82 81 72 68 68 69 74 77 78
39 37 34 33 35 33 36 37 36 36 34 28 32 34 35 37 37 42 39 42 46 42 43 46 52 78 79 72 68 67 68 72 77
33 33 32 33 34 34 34 37 42 41 38 42 43 40 37 34 35 34 32 34 33 33 32 36 42 51 70 72 69 68 71 71 71
32 35 35 34 36 35 36 37 41 39 37 42 44 46 39 35 36 31 34 33 34 36 35 35 38 40 39 52 72 69 66 62 64
31 32 31 32 33 34 34 34 43 41 37 34 41 46 43 46 38 36 33 31 31 32 33 30 32 34 36 47 51 66 65 61 62
25 26 27 26 27 27 32 24 34 35 36 34 26 41 41 51 52 33 31 29 27 28 31 30 29 32 39 48 57 67 66 57 62
24 22 25 23 24 25 29 29 33 30 34 38 39 40 44 42 41 42 35 33 30 31 34 34 39 33 34 42 46 57 56 53 58

GFSFLT1_sfc_rhum_030.txt.gz
RH
55 58 61 58 59 61 60 59 61 64 65 64 63 62 65 74 74 69 60 58 50 53 57 60 64 60 61 64 61 60 59 58 56
56 52 61 60 61 60 62 61 63 62 60 60 61 62 73 73 72 65 64 57 47 51 57 62 63 60 60 60 60 60 60 60 58
60 60 63 62 65 62 63 66 68 69 67 66 66 70 77 68 70 67 67 67 51 51 58 63 65 64 66 64 62 61 60 61 61
61 67 66 65 64 65 65 67 69 70 72 72 74 79 80 87 80 62 64 66 55 55 57 59 65 66 64 69 66 64 63 63 63
72 74 76 69 68 68 68 68 67 69 72 77 82 84 84 92 80 68 62 63 55 54 58 60 63 66 66 66 69 69 65 64 64
71 78 75 75 70 69 70 70 71 77 83 83 83 86 88 80 68 63 66 64 53 53 58 61 63 64 66 67 70 70 71 66 66
62 76 74 74 78 77 74 73 77 82 82 73 74 84 81 74 64 61 64 58 48 50 58 62 64 65 65 66 67 68 72 71 71
68 73 76 86 86 86 77 83 84 83 74 67 65 81 79 64 63 61 68 66 54 53 57 63 62 65 66 66 66 68 73 75 75
62 65 69 72 74 80 74 73 67 68 62 63 62 61 61 64 65 67 72 74 63 58 59 63 65 67 68 65 67 71 73 74 76
65 66 68 70 70 69 71 72 70 69 64 62 57 56 56 56 58 64 73 74 75 68 62 63 64 67 70 71 72 72 73 74 74
74 73 72 74 72 69 69 70 70 66 62 61 57 56 57 61 59 53 55 74 79 73 65 65 65 66 68 68 73 77 74 73 74
73 77 76 72 65 68 67 65 66 67 66 67 60 62 62 61 60 61 65 68 72 78 71 69 68 66 67 67 66 71 75 79 78
70 74 59 55 65 59 54 55 61 63 62 57 58 61 54 54 58 56 54 60 59 68 73 76 70 68 62 62 62 65 70 73 76
50 48 49 50 56 55 52 54 57 58 56 47 44 46 45 48 40 48 46 46 37 36 53 69 76 74 69 62 62 66 70 72 74
51 50 48 51 54 55 54 54 56 58 57 38 43 49 45 50 49 52 31 31 38 42 36 42 47 64 62 55 57 57 61 68 71
50 56 51 52 54 51 44 50 54 54 55 58 46 43 44 44 44 34 32 44 33 41 34 38 41 37 53 53 49 52 52 54 59
38 46 48 44 49 46 44 46 56 54 52 56 50 64 48 47 34 38 46 35 40 28 29 30 28 32 38 46 54 56 55 56 58
39 40 40 40 43 47 45 46 50 59 52 44 53 68 68 49 48 44 45 31 26 38 29 26 29 31 34 50 47 52 62 54 55
32 34 35 35 40 40 43 33 46 51 54 53 38 52 56 59 64 54 34 32 30 28 36 30 35 42 38 44 47 56 54 46 50
30 31 34 34 40 38 39 39 44 52 53 57 58 50 57 61 53 52 43 38 38 38 37 43 35 31 35 38 36 50 51 51 51

GFSFLT1_sfc_rhum_033.txt.gz
RH
61 62 61 59 61 62 60 58 59 59 62 62 63 63 64 73 82 77 71 66 56 49 56 60 61 63 60 63 65 64 61 61 59
61 60 64 62 62 61 62 62 63 64 63 61 60 61 73 81 84 77 71 67 62 50 52 59 63 63 62 62 61 60 61 61 61
59 59 65 64 65 63 62 65 68 71 71 68 68 72 78 74 82 75 73 70 62 58 53 56 62 64 64 62 64 64 62 62 62
63 65 67 66 65 64 66 66 67 68 70 74 77 81 83 89 87 75 75 70 63 58 58 58 59 62 65 66 64 69 67 65 64
72 77 77 69 68 68 67 68 68 68 70 74 82 87 88 94 93 83 76 71 64 59 56 58 60 61 63 66 67 67 71 69 67
78 83 79 77 72 70 69 70 72 78 83 84 84 86 91 94 86 80 76 71 65 60 61 63 59 62 63 64 66 67 68 68 70
66 79 81 77 78 78 73 74 79 84 92 90 83 81 81 91 81 75 73 69 61 56 61 63 65 61 65 66 66 66 66 67 72
78 85 83 85 86 87 82 85 89 92 91 86 83 79 91 86 77 70 73 68 59 59 64 65 66 66 65 66 69 68 69 69 73
70 77 81 87 86 88 88 86 79 81 84 84 72 60 62 65 62 64 77 74 64 60 66 68 69 70 68 68 70 76 74 75 75
75 76 77 78 78 77 76 80 78 76 72 64 63 62 60 63 65 73 78 79 76 67 63 63 64 66 67 70 74 74 75 76 76
81 80 80 81 79 68 68 68 65 60 56 56 60 66 67 69 66 67 68 75 73 68 60 58 58 59 60 65 69 72 73 73 74
80 84 76 68 55 45 43 42 48 56 50 51 48 55 58 52 52 55 65 69 75 63 51 53 57 58 60 63 66 67 70 68 71
68 56 45 48 48 50 53 60 60 61 62 61 56 54 48 50 52 51 54 49 37 48 55 52 51 54 57 60 60 61 68 72 75
50 48 52 56 58 58 56 60 61 63 60 45 45 56 46 56 48 52 35 33 42 47 52 59 60 51 48 48 50 51 52 58 62
52 51 50 57 57 52 52 52 52 59 60 33 47 39 49 56 55 47 26 40 45 46 40 46 52 50 42 45 46 47 49 49 50
49 54 48 50 53 46 40 50 53 56 54 61 40 53 51 46 39 25 44 42 39 30 29 35 30 29 46 44 48 52 54 52 51
37 44 45 42 47 43 43 46 57 60 57 57 62 63 58 49 30 44 42 46 29 30 29 25 28 30 35 53 49 49 46 47 50
38 37 39 41 46 48 45 45 51 63 59 51 57 65 71 47 55 42 50 32 35 40 31 34 33 36 41 40 46 45 43 47 51
35 35 36 38 44 41 45 38 48 58 62 60 46 56 62 74 71 60 38 42 34 38 40 39 43 40 37 44 45 43 44 45 47
33 34 36 36 43 40 40 44 44 50 61 61 62 56 60 68 69 53 51 40 40 39 40 35 46 37 37 40 39 43 43 48 54

GFSFLT1_sfc_rhum_036.txt.gz
RH
62 64 61 60 61 62 60 58 59 59 62 62 62 65 66 73 87 83 78 74 64 61 51 60 61 61 61 61 65 66 67 64 63
63 64 64 63 62 62 63 63 63 65 67 66 64 64 72 85 90 86 81 77 66 62 56 54 62 64 64 63 63 63 62 62 62
62 62 67 65 65 64 62 64 67 69 73 74 71 74 81 81 90 86 83 76 64 63 62 58 56 61 61 62 64 65 66 63 63
63 65 67 67 68 66 66 66 66 67 68 71 76 84 86 94 95 84 86 77 69 60 62 60 60 60 61 63 61 66 65 71 68
72 77 76 68 68 68 69 67 68 69 70 73 80 86 88 96 96 94 88 79 72 65 62 60 58 61 62 63 64 65 67 68 69
79 84 83 79 74 72 70 70 71 78 84 84 85 87 96 95 96 92 82 76 72 68 65 64 63 60 65 66 66 66 65 65 67
71 83 84 80 80 80 74 74 80 85 96 94 87 89 88 92 94 88 79 76 72 69 67 67 66 66 67 69 66 68 69 68 66
88 91 91 94 89 88 84 86 88 91 94 92 92 87 79 77 78 73 78 74 69 64 67 68 69 69 70 69 65 69 70 72 73
86 88 87 89 88 90 90 92 86 84 82 88 84 76 71 78 78 74 78 75 66 59 59 64 68 68 69 68 71 75 74 73 75
80 81 82 84 85 86 81 76 69 60 50 49 54 59 68 65 66 73 74 72 61 56 56 56 61 64 65 66 68 70 72 74 76
86 88 87 85 75 62 45 46 48 48 49 52 52 57 55 53 53 58 68 63 51 53 51 51 52 54 58 59 62 67 67 67 67
75 64 61 57 47 43 46 47 49 58 55 57 55 50 53 53 53 60 54 47 52 50 50 50 48 55 55 56 55 55 56 58 58
56 57 55 54 50 55 58 60 56 60 61 55 49 55 46 50 60 51 38 40 48 51 45 44 47 46 48 49 51 52 52 53 54
52 56 58 55 54 54 54 53 56 60 54 42 42 50 47 56 44 39 31 45 52 45 39 50 43 43 44 48 49 49 50 52 54
51 49 53 53 49 47 47 48 51 59 56 38 42 35 49 61 46 36 39 54 44 40 37 46 37 41 44 45 50 53 52 52 49
47 49 45 50 47 44 40 47 56 59 55 55 46 53 56 46 31 40 54 47 32 35 35 29 35 38 43 51 52 53 53 52 48
36 43 44 43 46 42 43 49 56 62 62 57 65 65 60 49 25 50 48 42 34 42 29 36 34 42 49 49 50 50 50 48 47
37 38 40 43 46 48 47 50 51 63 64 56 55 52 65 54 53 36 49 30 48 37 41 39 35 36 49 48 50 48 46 49 53
36 37 37 40 45 43 44 42 47 55 64 63 50 56 58 67 67 61 37 48 33 46 48 41 44 35 52 46 47 45 47 50 54
34 36 36 37 44 41 41 44 44 52 65 63 68 63 62 64 78 54 50 39 39 39 41 52 38 50 41 52 48 46 49 55 57

GFSFLT1_sfc_rhum_042.txt.gz
RH
61 61 60 61 62 61 59 58 59 60 59 59 56 58 62 73 89 91 88 84 71 63 62 61 56 60 62 63 61 61 63 66 64
62 63 63 62 62 62 62 62 62 64 66 68 68 68 75 87 91 92 92 87 73 64 60 63 62 58 57 67 63 60 59 60 61
65 64 65 65 64 63 62 63 65 68 69 70 71 78 86 89 94 95 96 88 79 72 64 62 64 64 60 58 57 64 64 67 66
65 66 67 66 66 68 67 66 66 67 68 69 73 82 87 94 98 95 98 89 80 75 71 66 63 64 63 64 63 63 63 62 63
75 77 77 68 68 70 70 70 68 68 70 74 81 86 89 95 95 97 98 81 77 74 73 72 69 67 66 69 67 66 66 67 67
87 86 84 78 74 74 72 72 73 82 87 85 85 88 97 95 96 96 86 78 75 72 72 73 72 71 72 70 70 71 68 68 70
82 86 82 78 82 82 78 80 82 84 95 96 89 96 93 93 94 94 64 60 62 64 64 65 64 66 70 73 72 71 70 68 71
95 97 95 95 91 94 88 90 91 91 92 88 81 74 72 72 73 64 63 57 55 54 55 57 60 60 61 64 67 72 73 74 75
95 96 93 94 94 91 94 95 84 56 49 43 47 58 56 57 59 65 58 54 54 53 54 55 56 60 63 65 66 64 65 66 67
90 92 96 96 93 79 66 56 47 42 39 43 48 46 51 47 59 63 59 54 53 53 55 53 56 56 57 57 58 59 61 61 62
96 80 63 60 58 47 47 51 52 49 46 37 39 45 46 47 60 40 53 53 49 49 54 53 53 52 51 52 54 54 55 56 57
60 57 54 52 52 47 44 45 50 47 42 38 38 44 40 58 39 38 50 56 49 50 51 49 48 49 48 50 51 51 52 56 58
54 53 51 40 46 47 49 52 54 51 49 44 41 45 38 64 32 42 54 54 41 47 46 45 47 48 48 50 51 53 53 56 56
47 45 46 43 44 47 46 52 62 57 47 38 42 41 45 59 28 47 54 42 42 47 41 43 45 45 47 50 53 52 54 57 57
40 42 43 44 44 43 43 45 56 64 59 39 35 50 57 56 39 53 47 40 41 49 39 47 49 45 46 49 52 51 55 54 53
36 45 43 45 42 44 39 49 49 64 60 52 52 56 52 58 43 46 56 41 40 48 35 38 45 47 47 50 49 53 55 54 55
36 42 43 42 44 45 44 46 49 58 68 61 66 55 44 47 30 47 51 43 49 41 26 42 45 49 55 55 47 53 54 55 56
38 40 43 45 48 53 49 49 53 55 59 66 52 44 47 64 53 48 59 38 50 35 43 45 42 45 55 52 53 54 51 55 57
38 39 41 44 48 46 46 43 52 57 61 59 50 57 62 56 59 58 40 49 32 42 54 45 48 51 52 53 53 50 51 55 59
38 39 40 43 48 44 44 45 46 55 59 62 65 64 63 69 76 52 53 40 37 40 49 53 41 44 51 58 58 52 54 58 61

GFSFLT1_sfc_rhum_045.txt.gz
RH
60 61 61 61 62 60 58 59 60 61 60 61 62 62 64 70 59 61 61 61 68 62 60 61 60 57 60 63 63 62 62 62 64
61 62 63 62 61 62 62 62 62 64 67 70 70 70 76 65 65 66 68 68 77 71 64 60 63 64 62 58 66 61 60 58 59
64 63 64 64 63 63 62 63 64 66 68 67 69 75 85 67 65 68 69 78 80 75 70 66 62 64 65 63 58 58 61 64 65
66 67 66 65 65 67 68 66 65 66 67 70 73 83 87 65 64 66 62 78 79 75 73 73 69 65 66 65 65 65 64 65 65
74 75 76 67 67 69 71 70 69 70 73 78 82 86 85 63 65 62 62 81 76 74 72 72 70 72 71 70 70 69 67 67 68
66 81 84 77 74 74 74 74 77 84 85 83 84 81 60 60 60 60 69 63 63 66 66 65 64 66 71 75 75 75 72 69 71
65 77 81 77 79 80 77 76 76 73 61 59 64 48 42 44 44 42 62 57 56 57 57 59 62 61 62 64 69 72 72 77 75
63 64 64 66 80 64 64 64 63 58 42 39 39 38 34 33 34 46 57 54 53 54 55 58 58 64 66 68 65 64 66 68 68
65 63 64 65 63 65 66 57 41 38 32 30 30 28 29 26 34 36 62 56 51 52 57 56 60 59 59 60 61 62 64 64 64
63 63 67 67 58 48 43 39 34 30 24 22 24 29 23 29 32 30 62 53 52 53 58 56 55 54 54 55 56 56 56 58 60
68 61 54 50 46 41 38 33 30 28 22 20 22 27 22 38 26 32 39 53 54 54 54 53 52 52 52 51 52 52 55 56 59
62 55 51 43 39 31 29 32 30 27 24 21 23 24 22 36 27 34 30 30 51 49 49 48 48 48 49 50 52 52 54 54 57
53 49 43 34 32 31 31 34 34 29 27 24 24 24 27 24 29 34 29 30 28 36 46 43 44 46 47 50 52 52 52 53 57
41 38 37 28 31 34 28 37 37 31 27 25 23 30 33 26 29 31 30 31 32 30 33 42 42 44 46 51 53 53 52 53 56
40 33 32 30 30 29 32 31 35 32 34 24 22 33 42 30 29 26 29 28 31 30 27 24 24 40 48 49 50 52 54 55 56
35 36 31 32 29 28 25 32 33 34 37 29 28 30 31 38 33 24 32 30 31 27 21 20 22 26 42 44 51 52 53 55 55
30 32 32 31 30 30 30 32 33 34 43 33 37 31 23 28 24 34 32 29 28 24 21 22 25 27 29 38 49 51 55 56 58
31 32 31 34 34 35 35 36 39 34 40 37 30 28 26 34 28 29 35 26 26 24 26 26 25 29 30 38 41 48 52 56 59
30 32 31 32 34 33 32 32 35 37 35 36 31 38 34 29 28 30 27 29 25 28 28 27 29 30 32 40 48 52 55 57 62
31 32 34 32 33 33 33 32 33 32 36 37 37 37 36 43 42 31 29 30 28 29 29 31 30 31 34 37 42 51 56 60 63

GFSFLT1_sfc_rhum_048.txt.gz
RH
61 60 62 61 62 61 59 60 61 62 64 67 65 65 66 71 48 50 50 52 68 68 61 58 61 62 59 60 63 64 63 63 63
63 63 64 62 63 63 63 64 64 65 68 70 70 74 77 57 48 50 53 55 75 73 67 65 61 63 65 67 59 65 67 60 60
64 65 66 65 64 64 64 64 64 65 66 67 69 75 82 55 49 53 54 67 76 75 70 70 70 65 64 65 67 61 60 61 65
68 67 68 66 65 68 68 66 65 65 67 70 75 82 84 56 49 50 48 81 78 74 72 72 72 72 69 68 68 68 67 66 66
73 74 72 66 67 69 72 70 70 71 76 79 81 82 81 47 50 47 54 70 64 67 70 67 67 69 74 74 74 74 72 69 68
58 78 78 74 73 73 74 76 80 79 79 79 79 80 44 44 45 45 63 60 58 60 60 61 63 63 64 66 73 74 76 76 75
48 68 76 72 75 76 75 74 73 71 45 46 58 36 34 34 36 36 60 56 55 55 57 61 61 66 68 69 67 66 68 69 71
45 45 46 49 73 49 55 54 48 45 36 34 32 31 30 28 28 42 58 55 52 52 59 59 62 62 61 61 63 65 66 66 66
44 44 48 50 46 50 52 44 38 34 29 25 24 23 22 20 23 37 60 54 56 54 60 59 57 57 56 58 58 58 58 59 62
47 46 46 48 47 44 40 35 31 28 23 20 20 22 18 20 20 26 60 53 57 57 56 55 55 54 55 54 55 56 56 59 59
49 50 49 45 41 39 34 31 28 25 19 17 16 18 17 23 22 23 36 56 54 52 51 51 49 50 49 50 50 52 55 56 56
55 51 48 39 31 28 28 26 22 21 20 19 17 18 16 24 23 25 22 30 50 48 47 45 44 46 47 49 49 51 52 54 53
52 47 41 33 29 26 24 24 25 24 21 19 19 18 19 20 22 24 22 24 20 29 42 45 44 47 47 48 51 52 53 52 54
43 38 30 25 25 25 23 28 24 24 22 19 17 22 24 23 20 22 23 26 26 23 25 31 30 38 46 48 49 51 52 53 55
35 34 26 23 25 24 25 26 24 23 23 17 16 24 28 24 24 22 19 22 26 23 22 19 19 30 38 44 48 54 54 53 54
35 35 33 25 24 22 20 24 26 26 24 21 19 22 22 28 27 22 21 23 22 20 17 17 18 18 33 36 46 52 54 55 56
37 26 30 24 24 24 23 24 26 26 28 25 28 23 20 22 26 20 22 20 20 18 18 19 19 21 22 29 45 46 53 57 58
32 31 25 28 26 28 28 28 30 27 28 26 25 24 24 22 18 23 18 20 19 20 22 22 21 22 23 30 33 42 53 58 62
31 29 24 26 25 26 26 24 24 26 27 27 21 29 24 23 22 19 19 20 19 23 23 22 22 24 25 33 40 44 50 58 63
31 25 26 25 24 25 26 26 25 22 26 27 26 26 25 27 30 28 22 21 21 22 23 24 24 24 25 28 33 45 55 61 64

GFSFLT1_sfc_rhum_051.txt.gz
RH
61 61 62 62 62 60 60 62 63 64 68 67 66 68 70 76 46 47 54 51 69 71 66 64 58 60 62 60 59 63 65 63 63
62 64 63 63 63 63 63 64 64 67 68 68 71 74 75 59 45 46 50 60 69 72 69 67 69 63 63 65 68 64 62 68 64
64 66 66 65 64 65 65 65 64 65 66 67 71 77 81 55 46 50 53 75 72 73 68 68 71 71 69 66 66 67 68 63 62
67 68 68 67 67 69 68 67 65 65 68 72 77 80 80 62 48 48 56 75 68 67 70 68 68 70 73 74 74 72 70 69 69
74 77 73 68 68 71 72 70 70 72 76 77 77 78 82 59 48 54 58 65 62 62 63 63 65 65 66 70 73 74 75 77 76
63 79 80 73 72 73 74 76 79 77 78 75 73 78 43 41 43 46 62 59 58 58 59 62 64 68 72 68 68 69 70 71 72
48 66 76 72 73 76 73 70 70 76 48 54 62 38 35 36 38 47 60 57 56 56 61 63 64 64 64 64 66 66 67 67 67
47 51 52 54 73 55 62 62 50 44 38 37 34 33 31 30 30 52 58 52 49 57 62 63 60 60 60 61 61 60 59 60 62
42 43 48 50 47 50 53 50 40 36 31 28 28 27 27 23 27 58 60 54 51 61 60 58 58 57 57 57 57 58 58 61 62
42 44 45 47 48 47 46 40 36 33 29 25 22 22 21 20 26 41 66 60 59 56 56 54 52 51 50 51 51 52 55 56 57
46 45 48 48 45 41 37 36 33 30 22 20 18 18 21 20 24 28 50 57 53 52 49 48 46 47 47 47 48 51 52 54 54
50 49 50 44 38 34 34 31 26 24 23 22 20 19 18 22 22 28 29 48 49 45 47 46 45 47 49 48 49 51 53 54 53
55 52 47 38 35 32 30 27 27 28 26 24 24 22 22 21 21 27 26 33 26 44 36 36 37 38 45 50 51 51 52 52 55
51 46 40 33 32 30 26 29 26 28 26 25 21 27 29 26 21 23 25 31 33 31 28 27 30 29 37 45 49 52 53 55 55
45 38 34 30 30 28 30 30 26 25 25 17 19 27 31 33 33 27 22 25 29 28 30 28 26 29 30 39 42 50 54 54 55
36 34 34 35 35 26 24 27 28 30 26 28 32 32 29 32 32 32 26 27 26 24 22 23 24 23 32 33 38 49 51 55 57
50 45 42 31 28 26 26 27 30 31 32 32 39 37 30 28 29 30 24 24 25 22 22 22 24 27 28 34 39 40 48 57 58
50 44 46 40 32 36 34 35 38 38 34 31 32 36 36 30 27 26 25 22 26 25 26 26 25 26 28 33 36 40 47 53 59
40 37 33 33 34 35 36 27 28 32 33 35 24 35 28 31 30 27 25 23 21 25 27 25 26 28 30 34 37 40 43 53 61
44 46 47 34 35 33 34 29 27 24 32 34 32 29 29 28 34 38 30 26 25 26 26 25 26 28 31 34 35 40 48 56 61

GFSFLT1_sfc_rhum_054.txt.gz
RH
61 61 62 63 64 63 64 65 65 69 70 69 69 71 74 82 70 60 66 77 67 69 66 66 64 59 59 61 64 62 62 66 64
63 63 64 64 63 64 64 65 66 70 69 69 71 73 79 76 71 65 80 79 68 70 66 69 68 69 66 64 65 66 68 62 63
66 66 65 65 65 66 67 66 66 66 67 69 73 77 82 69 61 66 82 75 66 66 66 69 70 72 72 74 71 68 67 69 68
68 69 68 68 70 70 69 68 66 67 70 74 77 81 82 84 66 59 67 73 64 65 65 65 67 67 68 72 73 74 76 76 75
74 80 76 70 72 74 74 72 71 73 76 75 76 80 81 84 60 60 64 63 61 60 62 64 66 71 71 70 70 71 72 73 73
82 80 81 80 75 76 76 77 79 82 82 78 77 78 72 56 60 67 64 58 57 59 64 69 66 66 66 68 68 67 67 68 68
65 82 82 80 80 80 75 72 75 78 70 83 75 64 50 53 62 70 57 52 49 60 66 66 63 62 63 64 63 62 61 62 64
72 83 79 86 84 84 82 79 74 54 50 49 48 44 45 42 63 62 58 57 58 64 62 62 60 59 59 59 59 60 61 63 64
66 72 74 75 74 74 75 61 51 47 40 37 35 35 37 33 65 70 64 53 60 61 60 57 55 54 52 52 53 54 55 57 57
64 68 69 72 69 68 64 55 49 43 37 32 27 28 29 27 49 78 73 64 58 57 53 51 49 48 47 46 48 50 51 53 56
67 66 71 69 61 53 50 50 47 40 32 31 27 28 29 30 32 65 72 59 55 51 49 48 47 47 47 47 48 50 52 52 55
68 72 69 63 56 47 47 40 36 39 35 35 30 27 28 27 29 48 61 61 52 42 41 40 40 41 45 49 50 50 53 53 53
73 71 65 51 50 49 44 43 42 42 40 38 35 33 33 32 33 36 40 50 46 44 33 32 33 33 38 46 49 51 53 54 56
69 62 55 50 46 43 40 42 41 42 41 34 30 37 38 35 28 33 33 36 39 40 34 31 32 30 34 39 45 48 53 55 56
66 59 54 47 46 44 43 42 40 41 41 25 28 39 44 40 41 35 29 35 33 35 31 36 36 33 34 39 40 44 52 53 56
52 52 46 45 43 40 35 37 40 46 43 44 43 44 43 42 40 40 38 36 32 30 30 34 36 36 33 36 38 44 46 51 57
57 56 54 44 39 34 35 38 43 45 44 43 47 49 42 39 36 46 33 34 32 30 27 31 31 35 41 42 37 40 45 51 54
71 66 67 66 72 66 48 41 42 49 44 39 47 49 52 42 38 36 38 29 38 34 34 33 32 33 38 42 43 38 42 48 54
55 56 57 49 48 41 37 35 35 42 43 43 34 44 40 44 44 41 36 33 29 35 40 36 34 34 40 42 42 38 41 47 55
52 43 39 42 47 35 35 36 35 37 45 46 44 40 43 39 47 55 47 43 40 40 41 39 39 36 37 46 43 36 42 49 56

GFSFLT1_sfc_rhum_057.txt.gz
RH
62 62 63 68 69 69 69 68 69 70 70 70 71 72 73 79 70 67 77 80 67 67 64 62 66 65 58 59 63 65 68 62 66
62 64 64 65 66 66 66 66 70 71 72 72 71 72 78 78 70 81 87 82 66 66 66 68 74 73 72 69 65 65 66 69 63
64 66 66 66 66 67 67 67 68 69 69 71 73 75 81 76 68 79 75 74 65 67 66 67 68 68 70 74 76 78 75 71 72
67 67 68 69 70 70 70 69 68 70 72 74 75 81 81 88 67 61 70 73 63 62 66 66 67 74 72 71 71 73 73 74 75
74 79 76 72 73 74 74 72 72 73 75 75 78 78 80 82 60 66 74 63 59 62 64 69 68 68 70 71 67 67 66 68 70
85 85 82 80 77 77 76 76 78 82 83 80 78 76 73 70 70 74 67 59 58 64 70 68 65 64 67 66 64 63 64 64 66
78 87 86 82 83 82 78 77 79 82 84 86 79 57 52 67 68 70 60 49 54 67 66 64 63 63 61 62 62 61 63 65 65
88 95 91 95 91 91 86 83 79 68 76 66 46 42 42 66 70 66 61 59 60 63 62 60 58 56 55 56 55 56 57 58 58
86 86 88 89 87 89 89 87 61 48 41 37 33 33 33 61 68 78 71 60 64 62 56 54 53 51 49 50 50 52 52 53 57
76 84 83 85 85 86 78 61 52 43 31 30 28 31 31 53 72 91 76 66 60 55 52 50 49 48 47 48 49 51 52 53 55
75 77 79 83 69 61 59 54 48 37 33 34 30 30 32 40 71 81 79 63 56 50 47 44 43 44 47 50 51 52 52 55 55
76 79 75 68 57 51 45 40 41 40 36 35 34 31 30 32 53 72 71 66 51 43 38 38 38 39 42 47 49 52 54 56 58
81 76 69 58 56 53 48 45 46 46 43 40 38 37 35 33 44 60 62 59 54 43 34 32 34 34 39 41 46 49 52 55 56
72 63 62 53 51 49 41 45 44 44 42 33 32 41 43 37 35 41 41 46 48 44 32 38 35 35 37 41 45 44 48 52 54
62 60 57 50 50 51 46 41 44 43 41 26 32 41 48 43 44 38 35 39 37 36 33 37 36 34 34 37 42 43 48 49 53
60 61 51 49 46 44 40 45 40 43 42 41 38 48 47 43 45 45 40 37 35 33 32 36 37 37 33 34 39 42 44 48 51
58 52 56 45 42 40 38 40 47 44 42 39 50 45 41 44 44 51 40 39 36 32 29 32 32 37 42 45 36 37 41 47 50
64 62 63 64 70 63 55 42 46 47 44 41 46 44 46 43 38 42 41 32 40 36 40 36 34 35 39 43 43 40 40 45 50
54 59 65 64 64 61 52 37 40 47 46 46 37 46 43 37 32 40 41 38 34 40 43 42 39 36 44 45 47 41 39 43 50
64 59 52 53 59 44 40 37 36 39 47 49 47 43 48 45 47 48 49 45 43 44 46 44 44 42 44 51 49 44 42 46 51

GFSFLT1_sfc_rhum_060.txt.gz
RH
65 67 72 73 74 72 70 69 69 69 69 68 70 71 72 75 80 74 80 82 66 62 58 59 66 68 61 59 61 66 69 67 63
63 65 69 70 71 70 69 70 71 72 73 72 71 70 78 80 83 88 90 86 66 67 69 71 72 74 77 75 69 67 66 67 70
64 65 66 67 68 68 68 69 70 70 70 70 71 76 83 74 76 82 76 74 66 65 68 69 69 72 73 72 73 74 78 78 78
66 67 67 67 68 68 68 68 69 70 71 72 73 78 82 84 72 64 78 73 63 64 66 69 72 71 69 68 67 68 67 70 72
71 77 76 72 72 72 71 70 70 72 73 73 76 78 79 74 70 76 78 64 61 67 72 69 68 66 66 69 68 67 68 68 70
85 86 83 80 76 76 75 74 75 82 84 80 79 71 76 73 75 77 69 58 64 69 70 65 66 65 66 65 63 65 66 67 67
84 89 87 83 84 84 78 79 83 84 88 87 67 54 70 69 71 74 65 50 64 67 65 64 62 61 60 59 59 61 61 61 60
96 98 96 97 93 96 92 90 86 86 89 58 46 45 65 70 71 69 68 59 66 62 60 58 55 54 53 53 54 54 55 57 58
97 98 97 97 97 96 95 94 81 52 49 42 37 34 57 67 71 86 69 68 63 59 55 52 51 50 48 48 50 52 53 54 56
92 94 95 96 93 94 95 89 54 37 33 31 32 34 50 65 85 96 77 69 60 54 51 50 47 46 48 48 50 52 53 55 56
85 89 86 91 92 89 77 60 47 39 36 33 32 34 44 70 86 86 84 65 56 50 44 42 42 42 44 48 49 51 55 56 58
78 84 91 84 71 61 49 43 43 41 37 37 34 32 34 53 76 80 78 67 55 42 37 37 37 37 41 43 47 50 53 55 56
83 87 81 67 59 54 47 47 48 46 43 39 39 39 38 41 75 70 67 62 56 43 34 33 34 37 39 43 46 45 48 52 54
82 79 70 61 57 53 45 48 44 43 41 35 36 43 47 44 45 61 55 56 56 47 37 36 34 34 37 39 43 45 46 50 52
77 68 59 55 53 50 45 42 45 43 39 27 35 46 50 47 48 42 39 47 42 42 35 37 36 33 32 34 39 43 45 46 50
67 62 55 53 48 47 40 45 38 41 45 39 43 45 48 41 45 44 42 40 38 36 34 38 39 38 34 34 37 39 42 44 48
64 55 52 49 48 45 43 44 48 42 43 39 53 42 37 43 44 52 44 42 38 33 31 36 36 40 44 48 40 38 40 43 48
69 59 56 62 74 58 56 60 62 58 42 41 45 46 39 41 39 47 45 39 43 42 43 39 39 39 42 48 51 48 43 44 48
74 65 62 69 72 70 69 57 57 54 45 45 38 44 39 30 26 38 42 41 36 41 47 46 44 44 52 50 52 48 45 45 51
77 73 67 71 67 59 55 55 55 42 51 49 50 47 52 46 44 40 47 46 44 45 46 47 49 47 50 54 54 49 50 53 56

GFSFLT1_sfc_rhum_063.txt.gz
RH
64 67 76 76 76 75 72 70 68 67 66 67 70 69 72 77 82 75 81 86 66 61 60 73 68 70 67 59 60 66 69 70 64
65 70 73 75 74 72 71 72 71 72 72 71 69 72 77 85 90 92 90 88 70 69 70 70 70 73 76 76 77 76 68 70 76
65 69 72 71 72 71 70 72 72 71 70 70 72 77 80 83 89 85 87 77 66 69 69 72 74 72 72 69 71 70 75 77 75
66 66 68 69 70 70 70 69 69 70 69 72 74 79 81 87 77 72 85 74 64 67 72 71 70 72 68 65 68 68 68 72 74
72 76 75 70 70 70 70 69 69 71 73 74 76 78 80 76 76 81 81 65 67 72 71 68 68 68 65 66 66 67 68 66 67
84 86 82 80 75 74 72 72 74 82 82 80 70 78 80 78 77 77 69 62 68 70 67 67 62 63 64 63 64 64 64 64 63
87 90 86 83 83 82 76 77 83 86 93 84 59 74 75 71 73 78 67 57 68 66 65 63 61 60 58 57 57 58 58 60 59
97 98 97 96 94 97 93 94 92 88 93 55 50 71 72 76 74 71 70 62 64 62 59 56 54 53 52 52 54 54 54 56 58
98 99 98 98 98 96 96 96 82 56 53 43 38 56 68 71 80 87 72 68 62 58 54 53 51 50 50 51 52 54 56 56 57
98 98 98 98 97 97 96 94 54 41 35 34 35 38 64 72 94 97 79 71 60 54 52 48 46 47 48 51 51 53 57 58 59
98 97 97 97 97 96 96 80 46 40 36 33 33 40 64 79 91 92 88 69 57 49 44 43 43 42 43 45 48 52 55 56 57
92 96 97 94 96 89 66 47 44 42 37 36 33 34 48 78 84 86 80 69 59 44 39 39 39 41 42 44 47 46 50 54 55
92 95 96 90 79 66 52 49 48 46 42 38 41 40 40 60 82 77 70 63 57 44 36 34 34 36 38 40 45 46 47 49 51
84 90 90 72 66 57 49 51 46 45 40 37 40 45 47 56 65 67 60 59 53 48 39 36 34 34 35 38 40 43 44 47 50
81 89 78 66 61 56 51 47 46 43 38 29 38 50 54 51 61 58 44 54 45 40 35 39 38 39 34 34 37 41 42 44 47
81 80 69 61 54 48 44 45 38 40 45 43 44 52 53 47 51 48 46 42 41 36 35 39 40 41 42 41 40 40 41 43 45
82 72 64 56 56 47 44 45 49 46 46 39 51 47 41 49 46 55 45 45 40 35 36 39 39 43 46 51 46 48 45 45 47
83 69 60 60 69 69 65 56 55 62 62 49 46 49 43 48 42 51 46 43 44 44 43 41 41 43 50 56 58 52 47 48 49
87 77 73 68 78 76 80 75 62 55 57 51 39 45 43 32 28 43 46 44 38 42 46 46 44 46 54 50 52 50 51 54 57
89 79 77 79 85 82 78 77 59 51 59 53 49 45 50 48 39 34 45 49 47 47 49 49 48 46 50 54 54 50 51 55 56

GFSFLT1_sfc_rhum_066.txt.gz
RH
62 69 73 80 79 78 74 71 69 67 65 69 71 70 74 77 79 79 83 88 71 68 74 76 73 76 70 58 62 62 68 70 70
66 66 78 72 74 74 72 71 71 70 69 70 69 74 77 88 90 92 91 83 67 70 70 73 73 72 73 76 72 79 75 77 76
67 72 76 76 73 72 73 72 72 72 71 69 74 77 81 87 92 90 91 76 68 68 72 73 72 70 69 67 67 70 74 78 78
67 72 73 72 72 72 71 72 69 70 70 73 75 79 84 85 83 76 87 74 67 72 71 68 68 67 65 65 66 66 66 67 68
70 76 76 72 72 73 71 68 70 72 75 74 75 82 78 80 82 86 84 70 70 70 68 66 65 64 65 66 66 65 67 66 65
85 85 81 79 75 72 71 70 74 83 84 73 76 81 78 80 76 77 69 68 69 68 68 64 64 64 61 61 61 61 62 62 61
88 89 86 83 82 81 75 76 84 88 92 66 75 77 74 74 77 86 67 70 67 66 64 62 61 58 57 58 58 57 59 60 59
97 97 97 97 94 97 94 96 95 92 80 53 75 72 75 74 74 71 70 68 63 62 58 56 55 53 53 54 57 58 58 59 59
98 98 98 98 98 97 98 97 71 88 52 44 57 65 68 70 87 92 78 67 63 58 56 54 52 52 52 54 54 56 59 60 60
98 98 98 98 98 97 97 92 55 47 40 38 38 56 63 85 97 97 80 69 58 55 51 48 48 48 50 50 52 55 57 58 58
98 98 98 98 98 97 97 75 44 41 36 36 38 54 70 88 92 95 88 69 58 50 47 45 43 43 44 47 48 52 53 56 57
97 98 98 98 97 95 86 54 45 43 38 35 35 47 73 88 90 89 80 70 62 47 44 42 42 40 42 44 46 46 47 50 52
96 98 98 97 97 90 67 52 50 48 44 41 41 42 45 84 88 82 70 67 57 46 40 37 36 37 38 40 41 43 44 46 49
92 96 97 94 90 78 58 54 50 49 44 39 45 48 47 67 72 77 63 64 53 52 41 40 37 35 35 36 38 41 44 45 46
89 95 96 86 80 70 57 51 48 48 40 31 40 53 55 59 77 69 53 62 50 45 39 41 40 42 40 37 38 40 42 43 45
86 91 91 79 72 63 49 49 42 43 43 47 49 54 56 51 56 59 52 51 45 39 38 41 43 43 44 45 43 45 46 44 45
89 88 83 73 67 58 48 47 48 45 49 42 48 45 42 54 51 58 48 50 46 38 39 41 40 46 49 56 49 47 46 48 49
88 86 81 74 71 67 58 59 63 71 62 51 51 50 44 54 45 54 56 49 48 47 44 42 43 46 56 62 62 50 52 52 54
90 88 81 77 76 76 72 76 83 81 74 61 48 49 48 39 31 44 47 46 42 44 49 48 46 51 56 50 52 50 50 52 54
94 88 86 82 84 82 78 81 78 74 77 73 76 51 50 38 33 31 46 51 51 50 49 52 51 49 54 57 57 51 52 56 59

GFSFLT1_sfc_rhum_069.txt.gz
RH
60 78 78 78 78 79 75 71 66 65 68 71 70 72 74 70 58 62 71 71 74 73 74 75 75 75 73 78 71 63 71 76 80
66 78 79 79 78 75 72 72 70 68 72 70 72 75 79 58 62 64 72 64 67 68 72 72 71 69 70 71 74 78 78 76 76
65 76 75 74 74 74 74 73 72 72 71 72 75 79 80 66 63 67 62 72 65 70 72 70 69 67 67 65 66 70 69 70 71
70 75 76 75 73 74 74 74 70 72 71 74 77 83 80 60 60 58 57 76 69 69 69 67 65 66 65 66 65 65 67 67 68
74 80 79 74 74 74 74 70 71 74 75 75 78 84 75 55 58 58 58 72 69 67 65 64 65 66 66 66 65 64 63 63 63
63 77 81 79 77 73 71 72 79 84 79 75 82 73 53 49 49 52 73 69 64 64 65 65 63 61 60 60 60 62 61 61 61
66 76 85 82 81 80 75 78 85 77 52 57 68 51 47 44 50 49 71 67 65 64 62 61 58 57 57 58 58 59 60 59 61
67 69 70 72 84 71 74 76 68 67 46 48 49 46 43 40 49 54 77 64 64 58 57 56 54 54 55 58 58 58 59 60 60
73 70 77 77 75 77 77 70 60 68 40 42 44 41 39 38 44 52 78 68 60 57 55 52 52 53 54 54 56 59 60 59 58
73 71 74 76 76 73 75 65 48 52 33 30 37 39 38 50 62 60 79 71 58 55 51 49 48 49 49 51 54 56 57 57 58
74 73 74 75 73 72 71 59 40 39 30 28 28 36 44 55 66 60 57 70 58 50 47 45 44 44 45 48 49 51 52 53 55
73 72 75 73 72 72 72 47 35 32 28 28 28 36 43 54 62 59 53 51 63 50 44 44 41 41 43 43 46 46 46 48 50
75 75 73 73 72 71 68 50 37 34 32 30 28 29 42 50 56 56 47 45 39 45 42 39 36 37 38 39 40 42 44 46 47
74 74 73 73 74 72 64 50 41 40 36 34 32 32 32 47 53 52 45 45 40 38 42 43 40 36 35 36 38 40 42 43 44
75 75 73 75 74 71 60 52 41 38 36 23 29 35 36 41 51 50 40 42 38 38 39 30 31 44 42 40 40 42 43 45 45
75 74 73 75 75 69 58 48 43 39 33 35 36 37 39 37 45 48 40 42 37 31 28 26 27 28 44 43 44 46 44 45 47
78 75 75 73 73 68 57 46 44 39 37 36 38 38 35 38 39 43 38 37 34 30 29 27 29 31 31 44 48 47 51 52 52
77 76 73 74 72 71 61 52 54 56 44 40 40 48 46 46 39 42 40 37 36 31 31 31 32 32 37 39 45 49 50 51 52
78 78 78 76 75 73 69 61 59 66 64 54 41 44 41 48 40 40 39 37 36 34 34 30 33 36 36 45 50 49 50 52 55
81 79 81 78 78 76 72 66 67 62 67 64 59 54 51 38 39 36 47 39 41 34 31 32 33 36 38 39 46 49 51 53 57

GFSFLT1_sfc_rhum_072.txt.gz
RH
75 77 77 78 80 81 73 65 65 67 71 70 71 71 67 69 51 59 65 64 72 75 75 77 77 76 75 77 62 72 79 78 78
76 78 81 80 80 75 72 68 67 72 73 71 72 74 74 45 48 50 59 57 68 70 70 69 70 69 70 73 76 74 73 73 74
74 78 79 78 76 75 74 72 68 73 71 73 76 77 76 51 47 51 56 69 69 70 70 67 68 66 67 67 68 70 71 71 72
69 78 76 76 76 76 75 73 72 72 73 75 80 81 77 46 46 43 44 76 69 70 67 65 65 66 65 66 67 66 65 66 67
76 83 80 76 75 75 75 71 72 74 75 76 81 79 74 45 48 44 53 71 65 65 63 63 65 66 65 64 64 63 62 62 63
62 72 82 80 77 75 72 73 79 82 79 79 81 80 42 41 41 40 76 66 63 64 64 64 61 60 60 60 61 61 60 62 63
44 67 85 82 82 79 74 82 82 77 44 51 71 41 40 37 36 39 73 66 65 63 62 59 57 57 59 59 60 60 60 61 62
46 50 56 56 78 52 63 67 52 49 39 42 39 37 34 32 36 54 78 66 62 58 57 55 54 56 57 58 58 60 60 60 60
41 43 47 50 49 48 50 48 50 48 39 37 36 34 32 29 31 51 77 68 60 57 54 53 53 54 54 55 58 59 58 59 60
42 43 47 48 47 47 50 49 48 49 36 34 34 32 30 31 30 36 81 72 59 55 51 50 49 50 50 52 55 56 57 57 59
44 44 47 48 49 47 48 49 45 44 38 30 29 29 30 32 37 39 54 72 61 52 48 46 44 45 47 48 50 50 50 52 53
46 44 47 48 48 48 50 50 43 37 33 30 26 27 29 33 38 39 38 50 65 52 46 46 42 42 42 43 45 46 46 46 49
47 46 47 45 48 49 51 49 45 38 33 30 27 28 31 30 34 38 37 36 32 50 47 42 38 37 38 39 40 41 43 45 46
48 48 47 46 52 51 52 52 46 43 36 33 30 28 27 32 31 35 37 37 34 30 46 46 40 37 36 36 37 39 40 43 43
54 51 50 51 55 55 54 54 49 46 41 28 29 30 28 27 33 34 33 33 35 32 34 35 33 44 41 40 39 40 45 44 45
55 54 53 54 58 58 54 53 53 48 40 35 36 32 30 29 30 34 33 34 32 29 30 24 22 27 42 40 41 42 41 44 47
58 56 55 52 58 60 59 55 54 49 39 45 45 47 35 30 29 32 32 32 31 28 26 23 25 26 24 38 47 46 50 48 48
62 62 57 54 56 61 63 58 58 55 44 39 47 53 53 37 33 34 34 32 35 28 27 26 25 25 25 38 42 46 48 48 50
66 67 67 62 60 59 63 58 56 56 55 41 34 41 34 38 39 33 35 34 34 35 35 26 27 28 29 41 46 46 48 49 52
74 72 71 72 67 68 66 62 59 54 57 51 44 39 36 32 35 43 38 40 37 33 32 28 26 28 30 32 40 46 48 50 55

GFSFLT1_sfc_rhum_075.txt.gz
RH
71 73 77 80 81 77 69 65 66 70 71 70 69 65 65 73 60 60 67 71 73 73 75 76 76 74 75 67 73 76 75 76 77
77 79 80 80 79 73 67 67 69 74 72 72 71 69 71 53 56 65 62 64 72 72 72 71 70 70 73 73 74 74 73 73 73
78 78 80 79 76 74 71 68 72 73 73 74 75 73 76 48 46 64 62 75 71 69 66 66 68 68 69 70 70 70 70 70 71
77 80 79 78 78 76 75 71 72 72 74 76 77 76 74 46 44 41 57 77 68 68 66 64 66 67 67 67 66 65 65 64 65
80 84 82 78 78 77 75 72 72 74 75 77 80 77 73 44 46 47 64 69 63 62 63 66 66 65 64 64 63 63 64 64 64
65 76 85 83 78 76 73 73 76 80 82 80 82 80 45 41 41 53 75 65 64 64 65 63 62 62 61 62 62 61 62 63 62
45 71 84 82 83 80 75 79 83 82 51 60 74 52 41 38 38 56 76 66 65 64 63 60 59 60 61 61 61 60 62 62 62
44 55 61 63 81 61 68 74 59 51 40 46 43 39 36 36 37 67 77 67 61 59 59 56 57 58 59 59 60 61 60 60 62
39 42 48 51 55 47 52 52 47 46 40 38 37 35 35 34 36 67 79 69 60 57 55 55 56 56 56 58 59 59 59 60 62
36 39 42 45 44 43 47 45 44 46 38 36 36 35 33 33 32 55 82 73 60 56 53 53 53 52 53 55 56 56 56 57 58
39 39 44 44 43 43 44 45 46 47 42 36 34 34 33 33 34 49 63 74 66 54 50 49 48 48 50 51 51 49 50 51 53
40 41 44 44 43 42 45 45 44 44 41 37 32 32 31 35 37 40 52 58 68 58 50 48 45 46 46 46 47 46 45 46 48
42 43 42 41 43 44 47 48 49 45 41 38 34 32 34 34 34 39 38 47 42 58 55 50 44 42 42 41 41 42 42 43 43
43 42 42 40 45 47 49 51 48 50 45 42 37 35 37 36 31 36 38 40 41 43 60 57 49 42 40 39 39 39 39 43 44
47 44 43 42 47 51 52 53 51 48 46 37 35 38 37 36 38 36 34 37 42 38 44 48 44 46 43 41 40 39 42 42 43
49 50 47 48 50 53 51 53 57 56 50 49 44 43 38 36 36 38 37 38 40 36 36 39 34 42 46 41 39 39 38 43 47
51 54 53 51 54 54 55 56 60 57 54 53 54 59 47 40 35 35 36 36 37 35 34 32 30 35 36 50 45 45 48 43 46
58 58 57 55 54 59 60 62 64 65 58 51 57 65 65 49 40 37 38 36 39 37 35 32 31 32 37 50 49 48 46 45 47
65 64 65 61 58 58 62 63 63 62 65 56 50 56 48 55 52 42 38 37 35 42 40 34 35 35 40 50 54 50 46 45 48
74 71 76 72 67 62 62 64 67 61 63 59 58 52 53 46 50 56 49 45 44 43 41 37 34 35 40 49 50 48 45 46 50

GFSFLT1_sfc_rhum_078.txt.gz
RH
69 72 80 84 83 72 66 67 70 73 71 68 64 64 68 75 80 83 82 85 73 74 75 72 73 75 76 77 76 75 74 76 76
77 78 83 82 79 70 68 68 73 74 73 71 68 68 75 65 65 67 82 80 71 70 70 71 70 73 75 75 74 73 73 72 74
78 79 83 80 74 70 69 71 74 74 74 73 71 74 78 63 65 79 85 78 68 67 65 66 66 69 70 69 68 68 68 69 70
79 82 82 79 78 76 72 73 74 74 76 76 74 77 77 61 64 66 83 77 65 65 67 67 67 68 68 66 65 65 66 66 66
85 87 86 83 80 80 77 73 74 76 77 79 79 76 78 67 68 77 82 68 63 64 66 66 64 65 65 64 63 64 64 64 65
84 83 87 86 83 79 75 75 78 84 84 83 84 81 73 63 72 80 77 66 65 66 64 63 63 62 62 63 62 63 63 63 64
66 88 88 86 85 83 78 80 85 84 83 90 83 82 72 56 74 84 76 67 66 65 62 61 62 63 62 62 62 62 62 63 64
80 95 92 96 91 88 88 95 92 83 74 76 73 69 60 58 77 82 78 66 62 61 59 59 61 60 61 62 62 61 62 63 64
68 79 86 87 89 86 87 92 81 72 62 66 65 54 53 54 81 89 80 69 60 58 57 58 59 58 60 60 60 61 61 62 63
60 67 70 74 77 74 76 75 67 67 60 54 52 51 48 46 61 95 83 74 63 57 55 56 56 56 58 58 57 56 57 57 58
60 61 66 70 66 66 69 70 70 69 61 53 51 49 49 46 72 87 86 75 68 56 54 53 53 53 54 55 52 51 51 52 53
58 61 67 69 66 63 66 66 68 68 65 56 50 49 48 49 52 79 81 80 73 64 52 51 50 50 51 51 51 48 46 49 48
61 64 67 65 66 67 70 73 74 70 68 62 54 50 50 50 52 60 74 74 63 68 60 53 50 50 46 48 46 46 45 43 43
63 64 65 61 68 70 71 75 75 74 68 60 57 51 55 52 45 53 57 70 67 67 69 64 57 48 46 44 43 44 42 43 43
66 64 62 62 69 74 76 76 77 74 71 48 51 55 55 56 56 53 50 55 57 63 63 67 58 56 45 43 43 42 42 42 41
64 66 63 64 68 73 71 76 80 80 72 69 64 64 54 51 53 56 56 54 52 58 60 60 58 56 49 46 43 42 39 42 46
62 62 64 66 72 72 75 75 84 82 80 78 71 75 67 59 50 53 52 54 56 50 52 54 51 55 60 53 45 42 46 45 44
72 72 70 74 71 74 75 75 80 82 83 70 76 89 86 68 61 51 56 54 60 53 48 45 38 47 59 60 55 53 47 44 43
87 84 81 81 83 80 78 76 76 81 79 81 59 79 67 71 64 58 54 54 51 53 53 43 40 38 60 57 59 53 48 44 44
86 88 85 87 85 86 87 88 85 75 83 72 88 74 72 66 68 68 58 55 52 54 47 42 40 39 51 59 62 55 47 44 47

GFSFLT1_sfc_rhum_081.txt.gz
RH
72 72 80 84 77 70 68 72 73 71 69 67 67 68 75 82 87 84 86 80 74 74 75 76 76 77 76 76 75 76 76 77 77
75 79 84 82 76 70 69 73 74 74 71 69 68 70 76 65 82 85 87 79 68 68 72 74 75 75 73 72 72 70 72 72 74
79 80 84 79 72 71 72 74 75 74 72 70 69 74 78 69 88 90 87 75 64 64 66 66 67 69 68 68 68 68 68 69 68
78 84 83 77 74 75 75 75 75 75 74 71 72 76 80 79 80 76 87 74 65 65 66 66 66 67 66 66 66 66 66 66 66
86 89 86 84 82 80 80 76 76 77 77 75 77 76 78 87 84 85 83 68 65 66 65 65 65 65 64 64 65 64 64 64 64
89 92 91 87 85 81 77 76 79 84 84 81 81 83 79 86 86 88 77 66 66 66 64 64 64 64 64 63 64 64 64 64 64
80 92 91 88 87 84 79 80 86 86 92 90 82 84 81 85 89 89 77 68 67 64 63 63 63 63 63 63 63 63 64 64 63
97 98 97 97 94 94 91 95 97 92 90 88 82 81 80 86 89 84 77 67 65 62 62 63 62 62 63 62 61 62 63 63 63
96 98 98 98 98 96 97 99 96 91 85 83 76 76 65 90 97 90 80 70 63 60 60 61 61 61 61 61 61 62 62 63 62
86 92 94 97 97 96 97 98 93 87 81 74 71 61 56 84 97 97 84 75 65 59 58 60 59 60 61 60 60 59 58 59 59
70 83 84 86 88 89 86 85 87 82 74 63 60 55 54 62 95 97 88 79 71 60 58 58 58 58 59 57 56 56 55 54 54
67 74 80 78 77 78 79 80 81 80 73 62 58 55 54 61 94 92 91 84 78 68 56 56 56 56 57 57 53 51 50 50 50
66 71 74 76 77 74 80 81 82 80 80 71 62 58 55 55 89 90 86 86 76 74 66 59 55 54 55 54 53 50 50 47 46
66 69 71 72 75 78 76 83 82 82 79 69 63 60 60 58 55 86 85 81 77 78 74 71 65 59 52 52 51 51 47 46 44
72 70 69 71 76 79 82 82 87 81 74 55 57 59 62 62 63 63 71 77 72 71 76 79 70 65 54 50 49 49 48 48 45
72 73 69 71 72 74 78 83 85 85 79 72 72 69 63 59 62 61 62 65 66 70 74 71 64 65 61 50 48 49 47 45 45
69 71 70 70 76 77 80 82 92 88 81 79 74 72 67 65 57 59 57 62 62 64 63 61 58 62 64 62 53 48 46 45 49
68 74 67 73 72 72 81 79 83 89 93 75 71 90 82 77 69 59 61 61 68 64 59 58 53 56 63 62 56 51 46 50 46
92 87 80 71 82 82 81 79 81 89 82 92 67 83 80 75 70 63 62 62 61 62 60 58 49 49 57 59 62 57 51 46 45
93 95 94 92 87 87 85 88 84 77 82 81 92 85 84 71 73 72 72 73 70 62 56 51 44 45 59 65 61 55 50 47 46

GFSFLT1_sfc_rhum_084.txt.gz
RH
72 76 82 78 76 69 72 68 68 70 70 69 72 76 81 87 85 93 82 83 74 75 76 78 76 76 75 75 75 74 75 77 78
74 81 83 78 74 70 73 72 72 72 71 69 70 74 78 90 94 91 86 75 68 70 74 77 78 74 70 70 69 69 69 67 72
77 83 82 77 72 72 74 74 73 73 71 69 71 77 79 85 93 91 86 73 66 67 65 66 68 68 68 68 67 67 67 67 66
79 85 82 77 74 76 75 76 75 73 72 70 75 83 87 93 88 80 87 74 64 65 66 66 67 66 66 66 66 66 66 65 65
86 88 83 81 81 82 81 76 76 75 75 74 78 81 85 92 88 88 87 70 66 66 65 66 65 65 65 65 64 65 64 64 64
95 94 90 86 84 82 79 77 79 84 83 79 77 81 85 93 91 90 79 68 67 65 65 64 64 64 65 65 65 65 64 64 64
93 96 93 90 88 85 81 81 86 88 94 92 84 86 88 94 93 92 77 68 66 64 64 64 64 64 64 64 63 64 64 64 64
98 99 98 98 95 96 93 94 97 93 93 90 90 87 85 97 96 88 79 69 66 63 63 64 63 63 64 62 62 64 63 63 64
98 99 99 98 98 97 97 99 97 94 92 90 89 85 80 96 98 93 82 73 65 62 62 63 62 63 63 61 62 63 64 63 64
98 98 99 99 98 98 98 98 98 96 93 88 85 79 71 95 98 98 85 78 68 62 61 61 61 62 62 61 61 62 62 61 60
93 97 98 98 98 98 98 98 97 95 91 86 80 71 65 94 96 97 92 81 74 63 60 61 61 61 61 60 58 58 58 58 57
84 89 95 94 96 95 96 95 94 95 86 79 68 62 62 84 96 96 96 89 81 72 60 59 60 60 61 58 56 55 54 53 53
74 80 84 86 90 89 92 93 92 93 91 82 70 64 61 73 95 96 94 93 84 79 70 64 59 58 59 60 57 54 52 52 50
68 72 78 82 84 87 83 91 90 92 91 84 73 67 65 63 81 96 95 92 88 86 78 75 70 66 58 57 56 54 53 50 47
66 74 74 80 86 88 89 88 93 89 84 68 64 66 66 68 72 91 89 90 85 81 78 87 80 72 62 56 54 53 53 50 48
74 72 72 77 79 79 84 87 88 93 83 75 75 73 68 65 71 70 83 91 83 80 77 85 77 76 69 59 53 52 51 50 48
72 75 72 72 79 81 85 88 92 93 86 81 79 78 70 69 64 68 65 72 80 77 73 76 67 67 74 71 63 54 50 48 45
79 79 74 74 73 76 82 86 88 91 94 80 78 88 85 83 73 68 66 66 74 75 72 70 64 64 66 65 66 61 46 44 47
90 85 84 84 77 75 81 83 83 91 89 94 78 85 81 80 83 69 78 70 68 73 79 73 66 59 61 65 69 64 58 58 49
95 95 92 88 89 87 88 84 82 74 72 83 90 80 85 70 70 72 79 88 84 82 69 67 64 61 72 80 71 61 60 66 72

GFSFLT1_sfc_rhum_087.txt.gz
RH
77 79 78 76 73 69 67 70 73 73 72 76 77 83 84 88 94 91 85 88 73 73 75 77 76 75 74 72 73 70 76 79 78
77 81 79 74 72 71 69 70 72 73 72 73 74 81 88 92 93 89 82 76 66 63 68 74 74 74 69 66 67 66 65 65 70
80 80 78 74 72 73 71 72 72 72 71 72 74 83 86 88 93 89 85 75 65 63 64 65 67 67 68 67 67 66 66 66 66
80 82 79 74 74 74 75 73 72 72 71 73 78 88 90 94 92 81 89 75 64 65 66 67 66 66 67 66 66 66 65 65 65
86 87 84 80 81 81 78 76 74 73 74 75 84 88 89 94 92 90 90 69 64 65 64 65 64 64 65 64 65 64 64 64 64
95 94 88 86 85 83 78 77 79 83 81 79 82 84 95 94 94 93 80 67 64 64 64 64 63 63 64 64 64 63 64 64 63
95 96 92 89 88 86 81 80 86 87 94 94 86 88 94 95 94 94 79 68 64 63 63 63 63 62 63 62 63 63 63 63 63
99 99 99 98 95 97 93 94 97 93 94 94 93 89 95 97 97 89 80 69 64 62 62 63 62 62 62 61 62 62 61 63 63
99 99 99 99 98 97 97 99 97 94 91 90 90 89 88 98 98 94 84 74 65 62 62 63 61 61 61 59 62 63 62 63 62
98 99 99 99 98 98 98 98 98 96 93 93 91 86 81 93 98 98 90 81 70 63 61 62 61 61 60 60 60 62 62 61 61
98 99 99 99 99 98 98 98 98 97 95 92 91 90 75 92 96 98 95 83 78 66 62 61 61 60 61 60 59 58 58 57 56
95 98 99 98 98 97 97 97 96 97 92 93 88 81 73 90 96 97 96 92 84 76 62 61 62 60 61 60 57 56 54 53 52
94 96 97 97 98 98 98 97 97 97 97 95 86 73 69 75 95 96 97 96 92 84 76 67 62 61 61 61 57 54 52 51 49
82 86 90 94 97 97 95 96 95 96 95 94 92 76 72 68 84 96 96 95 94 93 82 80 76 71 61 60 60 57 52 51 46
75 80 82 89 94 96 96 94 95 94 93 81 80 80 72 72 74 93 94 96 94 92 87 87 89 78 68 60 58 57 54 51 47
72 75 77 83 84 84 90 93 92 96 92 85 83 77 73 68 72 75 91 96 95 93 88 86 90 83 76 67 59 54 54 54 49
78 75 72 76 83 87 90 91 94 94 90 87 83 88 82 75 69 71 71 82 95 92 84 85 85 82 83 77 69 59 52 50 47
82 82 75 73 75 77 85 88 90 92 96 80 84 90 92 87 77 73 72 71 81 88 87 83 81 75 75 71 69 67 64 65 75
86 86 87 89 84 81 84 82 85 91 92 95 81 80 73 75 81 68 73 68 64 68 77 78 73 69 72 75 81 80 82 80 81
98 95 93 91 90 87 87 91 92 80 72 86 92 88 84 74 81 80 84 78 77 75 71 70 74 66 74 84 81 75 76 77 83

GFSFLT1_sfc_rhum_090.txt.gz
RH
78 74 72 72 71 68 71 74 75 75 77 78 81 78 82 89 96 94 87 86 73 74 76 77 75 72 70 68 68 69 75 76 76
80 77 74 72 68 70 73 74 74 75 77 76 83 85 87 91 92 89 86 72 61 59 61 62 64 67 65 66 66 66 67 64 64
83 77 75 73 71 70 73 73 74 73 74 75 83 86 86 88 90 88 90 76 64 65 67 67 65 66 67 66 66 66 67 67 67
84 79 77 73 73 73 74 73 73 72 73 74 84 88 89 94 90 82 90 75 65 67 68 67 66 67 67 66 65 65 65 65 64
88 86 83 80 80 79 78 74 73 74 75 80 88 90 90 94 92 92 89 68 65 65 66 65 65 66 65 65 64 65 64 64 64
94 93 88 86 86 80 79 78 79 83 82 84 88 90 97 95 96 96 80 66 64 64 65 64 63 65 65 65 64 64 64 64 64
95 95 91 89 89 86 80 81 86 90 96 96 85 93 95 96 95 96 80 66 63 63 64 64 63 64 64 63 64 64 64 63 64
99 99 99 98 95 97 94 96 97 94 96 94 94 90 95 98 97 88 82 67 63 62 62 64 63 63 62 62 62 62 63 63 64
100 100 99 99 98 97 98 98 96 93 92 91 90 90 94 98 98 94 88 76 64 62 62 63 62 62 61 60 62 62 62 63 63
99 99 99 99 99 98 98 98 98 95 92 93 91 89 90 89 98 98 92 84 72 63 61 61 60 60 60 60 61 62 61 62 62
99 99 99 99 99 98 98 98 98 97 95 93 93 92 91 82 94 97 96 88 82 67 61 60 60 59 59 58 59 59 58 58 57
97 98 99 99 99 97 98 97 97 98 94 94 94 91 90 81 92 96 97 94 88 80 63 61 61 60 60 59 58 55 55 53 52
96 98 98 98 99 99 99 98 98 98 97 95 95 90 78 74 90 96 97 97 94 88 80 70 63 62 61 60 59 56 53 52 50
93 96 97 97 98 99 98 98 97 97 97 96 96 95 83 73 71 94 96 96 96 96 86 82 79 74 63 61 59 60 56 52 48
85 92 94 96 98 98 98 96 97 96 95 89 89 94 87 79 76 81 93 96 95 95 93 92 92 83 73 62 60 58 60 55 50
81 84 86 92 94 93 94 95 95 97 94 92 93 88 81 78 75 76 81 95 96 95 95 96 94 90 80 72 61 59 57 59 56
82 80 80 83 88 93 95 94 95 95 96 94 92 94 87 82 75 74 73 79 95 96 94 93 92 92 88 83 75 67 56 55 55
85 83 80 81 80 84 92 92 93 94 97 87 88 93 95 92 80 71 76 75 84 88 90 87 84 83 81 77 75 68 63 67 76
90 88 87 87 86 86 92 90 90 92 94 96 82 82 74 78 84 73 65 64 65 65 77 84 86 79 83 76 83 79 75 77 83
96 94 94 91 94 91 89 92 92 87 78 87 93 89 86 78 86 90 89 77 80 80 78 72 75 75 80 87 87 79 78 78 76

GFSFLT1_sfc_rhum_093.txt.gz
RH
73 69 70 74 75 73 73 76 77 77 79 78 75 82 88 84 69 63 63 69 71 70 68 67 69 68 68 67 70 70 68 69 71
75 73 73 72 73 74 75 75 78 79 79 80 82 84 85 63 62 61 59 56 62 66 66 65 66 65 65 66 67 68 69 68 66
77 74 74 71 72 74 75 75 76 76 79 83 84 84 82 63 61 63 60 71 65 67 67 66 66 66 65 66 66 65 66 66 65
78 78 76 72 73 76 77 75 74 75 76 83 85 88 87 60 59 58 57 75 65 67 66 66 66 66 66 65 65 64 64 64 64
84 86 81 80 81 81 80 76 75 76 78 84 88 90 86 59 62 60 58 69 64 66 66 65 66 66 66 65 65 64 64 64 63
74 85 88 86 85 82 79 78 81 83 88 90 91 87 63 60 60 59 76 66 64 65 66 64 65 66 65 65 64 65 64 64 64
74 83 91 90 88 86 82 84 85 78 61 64 77 62 63 61 62 60 79 65 64 64 64 65 65 65 65 65 65 65 64 65 65
76 81 81 77 87 72 74 78 70 67 62 62 57 57 62 60 60 68 82 66 63 63 63 64 64 64 63 64 64 64 65 65 64
82 80 80 78 74 77 78 76 73 68 64 60 58 58 61 63 62 66 88 75 64 62 63 63 62 63 61 63 64 64 64 64 64
87 82 83 81 79 75 78 75 72 67 64 61 60 61 59 61 63 62 91 85 72 63 62 63 61 62 61 62 63 64 63 62 63
82 84 84 83 80 76 73 73 72 69 65 62 64 62 62 59 60 61 63 88 83 69 62 62 62 61 61 62 62 62 60 59 58
80 80 83 81 79 78 77 75 74 73 70 64 62 63 60 60 59 61 65 67 89 83 65 63 63 62 62 62 61 59 58 56 54
78 79 78 77 78 79 78 77 76 74 72 66 60 61 62 55 53 59 62 68 65 77 82 73 65 64 63 62 62 60 58 56 53
73 73 72 73 79 81 80 80 77 76 72 71 66 65 66 62 52 53 61 67 70 66 79 86 82 76 65 63 60 63 60 58 54
73 72 73 75 79 81 83 82 80 75 70 70 67 65 64 64 60 52 52 60 70 69 71 66 64 85 76 65 62 60 64 60 56
73 72 73 76 77 74 76 76 79 80 76 72 67 64 62 63 61 57 52 56 62 66 68 66 64 62 82 76 66 61 60 64 59
74 74 74 73 75 75 75 76 78 76 75 70 72 72 62 60 59 58 56 53 53 59 67 66 66 66 65 71 80 73 60 59 64
78 76 73 73 72 73 74 76 78 73 79 70 66 77 74 70 61 55 56 55 56 56 59 68 70 70 71 74 75 80 75 59 57
84 80 79 75 76 73 80 80 78 76 75 80 72 76 71 77 81 64 57 54 53 59 66 63 60 72 78 80 80 78 74 62 71
88 87 84 82 84 83 85 82 81 78 71 75 82 84 84 76 80 88 75 70 62 69 63 62 56 62 67 73 81 82 72 67 72

GFSFLT1_sfc_rhum_096.txt.gz
RH
67 69 72 75 76 73 69 76 80 80 78 76 81 83 81 74 46 48 53 53 67 67 68 70 68 68 69 70 71 71 70 68 68
70 71 74 76 76 71 75 79 79 80 79 82 84 82 80 47 46 44 46 56 67 67 66 65 66 66 67 67 67 67 67 67 66
73 72 74 74 75 75 76 77 78 81 81 82 81 80 75 49 45 46 49 69 66 66 66 66 66 65 65 65 65 65 65 65 64
74 75 75 74 76 77 77 77 76 80 83 83 84 84 78 43 43 40 45 74 65 66 66 65 65 65 65 65 64 64 64 64 63
83 84 80 80 81 81 79 77 76 77 84 84 86 84 77 43 45 43 53 68 66 65 65 65 65 65 65 65 64 64 64 63 64
65 80 88 86 84 81 78 79 78 89 91 89 87 84 44 42 43 44 75 66 65 65 66 66 66 65 65 64 64 64 64 64 64
63 78 92 89 88 86 82 82 80 73 50 58 77 43 44 44 45 48 72 65 65 65 66 66 65 64 64 64 64 64 65 65 65
64 66 62 61 80 54 64 64 47 48 44 46 42 42 43 42 44 63 75 65 64 64 65 64 64 63 63 64 64 64 65 65 65
52 56 56 55 52 50 49 45 47 47 46 43 43 42 43 43 44 58 84 72 65 64 65 64 63 62 62 63 64 64 64 64 65
48 51 60 54 51 50 51 48 43 44 42 42 43 45 44 46 44 43 85 82 70 64 65 65 63 63 61 63 64 63 63 63 63
54 51 55 55 55 52 51 50 48 45 38 40 43 43 44 45 46 43 50 85 82 69 64 65 64 64 62 63 63 62 60 59 59
55 51 54 53 52 52 53 54 51 48 45 40 39 42 42 45 46 45 45 54 90 83 68 64 65 65 64 64 63 61 60 57 54
56 54 53 51 53 54 53 52 52 50 49 45 41 42 46 44 43 44 44 48 46 77 83 74 66 66 65 64 66 63 61 59 56
54 52 51 51 54 56 55 55 53 52 53 50 47 44 44 46 46 46 46 48 52 48 80 86 84 78 68 65 63 66 64 61 58
57 53 51 52 56 60 61 59 59 54 52 50 51 51 50 51 50 47 45 45 51 52 53 54 59 85 78 69 65 64 67 64 61
57 56 53 55 58 57 58 60 61 61 57 58 54 53 50 50 48 48 47 47 49 48 48 49 48 51 82 79 70 65 64 68 65
60 59 60 58 59 60 59 61 63 57 59 57 60 59 50 49 47 47 48 48 46 47 48 47 49 50 53 62 81 78 66 63 70
66 64 62 63 63 63 64 62 66 62 61 60 56 66 61 54 49 49 46 46 46 46 47 49 53 56 59 67 75 82 80 68 66
78 74 70 66 66 64 65 62 62 65 64 65 59 58 57 62 64 55 51 47 46 47 47 48 55 67 69 76 82 82 81 72 64
86 84 80 75 72 72 72 72 69 63 64 67 71 68 63 61 67 76 63 60 51 50 51 50 53 51 56 72 70 79 74 68 64

GFSFLT1_sfc_rhum_099.txt.gz
RH
67 69 75 78 77 76 75 76 77 77 77 78 76 79 80 72 43 48 57 60 64 67 68 68 68 68 69 69 69 69 69 68 67
70 72 78 77 70 76 78 80 79 80 82 82 80 74 76 40 41 47 55 61 66 66 66 66 66 66 66 66 66 66 66 65 65
71 74 77 76 73 78 78 78 80 82 82 80 78 78 77 41 44 52 59 70 65 66 66 66 66 65 65 65 65 65 65 64 65
72 77 78 74 77 79 78 80 81 82 81 80 79 77 74 42 41 42 53 73 64 64 65 65 65 65 65 65 65 65 64 64 63
81 83 81 82 81 80 80 77 81 83 82 81 80 79 74 41 44 50 60 68 65 65 65 65 65 65 66 65 65 64 64 64 64
65 77 87 86 84 81 79 78 82 91 90 85 82 83 41 40 44 53 75 66 64 65 66 66 66 66 66 66 65 64 64 64 64
64 78 92 89 87 85 82 78 83 81 56 60 77 48 41 42 45 57 74 66 65 65 66 66 65 66 66 65 65 65 65 65 65
66 66 64 65 84 61 70 67 53 46 42 48 41 40 41 42 44 68 75 66 65 65 65 65 64 64 65 65 65 66 65 66 66
58 56 53 52 51 48 51 46 43 45 42 40 39 39 42 43 45 67 81 70 65 65 66 64 64 62 64 64 64 65 65 65 65
49 48 47 47 47 45 46 42 42 42 39 38 39 42 42 44 45 50 84 82 70 65 66 64 64 62 62 63 64 64 64 64 63
45 47 55 49 47 45 46 45 44 40 36 38 38 40 42 42 44 43 65 84 83 69 66 66 64 64 62 63 64 62 61 60 60
49 46 51 50 47 45 46 46 45 44 40 36 35 38 37 42 44 47 47 69 87 84 67 66 67 66 64 63 63 63 60 58 55
50 48 48 47 48 48 50 50 51 48 48 45 39 38 42 42 42 47 47 51 50 82 84 77 68 68 66 64 67 65 63 60 56
47 46 46 45 49 50 51 50 49 53 52 50 47 46 46 48 43 45 46 50 54 54 85 85 84 80 71 66 67 69 66 63 60
51 47 46 47 51 54 56 55 54 51 50 46 46 51 52 52 54 51 46 48 53 56 58 71 72 86 80 72 66 66 71 68 64
55 57 51 51 53 56 55 56 56 60 55 58 60 59 54 54 55 53 50 50 51 52 54 56 56 65 83 81 73 68 66 72 68
57 58 58 54 58 58 58 60 65 61 62 67 65 70 59 55 52 52 50 50 51 52 52 51 54 58 62 72 84 80 70 66 72
65 62 62 62 62 66 66 66 71 70 65 64 66 74 73 65 58 55 52 51 54 54 53 54 54 57 64 75 79 83 83 74 67
79 74 74 67 70 70 70 65 67 70 70 69 63 68 66 72 70 61 55 51 50 54 58 55 55 60 69 78 82 84 82 75 71
94 94 84 81 83 77 74 73 69 63 71 69 76 74 72 76 75 77 73 65 60 59 58 55 57 56 62 68 75 77 78 75 71

GFSFLT1_sfc_rhum_102.txt.gz
RH
70 75 77 79 79 76 75 73 72 75 78 78 78 73 79 68 61 67 72 72 65 67 68 68 68 67 67 67 67 68 67 66 66
73 74 76 79 80 80 77 78 80 81 80 78 75 77 72 55 65 73 78 70 65 66 66 66 66 66 66 66 66 66 65 65 65
72 75 68 74 80 79 79 81 82 82 80 76 75 75 75 57 68 77 83 72 65 65 66 66 66 66 66 65 65 65 65 64 65
75 79 75 79 80 81 84 83 82 81 78 75 74 74 73 61 65 63 80 72 64 65 65 66 66 66 66 65 65 65 64 64 64
84 83 73 84 84 84 85 84 83 82 79 77 75 75 79 63 67 77 82 68 64 64 65 65 65 66 66 66 65 65 65 65 64
84 86 87 87 86 84 80 83 87 89 86 82 80 82 70 64 70 82 77 66 64 66 66 66 66 66 66 65 66 66 65 66 65
80 92 90 89 88 88 81 82 90 85 86 89 83 80 62 66 73 84 77 67 66 66 67 66 66 66 66 66 66 66 66 66 66
85 98 97 98 93 92 89 87 84 87 75 74 76 65 63 66 72 81 78 68 66 66 66 66 66 66 65 66 66 66 66 66 66
71 82 84 87 87 85 85 82 74 64 60 64 58 59 63 68 76 90 79 74 67 67 66 66 64 65 65 65 66 66 66 65 66
76 74 71 69 71 73 76 71 64 62 59 57 56 57 60 61 71 90 87 80 72 67 67 66 65 63 64 65 65 65 65 64 64
69 71 72 72 69 68 68 66 62 61 58 56 55 58 60 60 61 82 91 86 81 70 67 67 66 64 64 64 64 63 62 61 60
67 69 75 74 68 65 67 66 66 64 55 57 52 56 59 59 61 66 82 87 88 82 68 68 68 68 66 63 64 63 61 58 56
70 72 75 71 71 71 72 73 72 72 69 65 60 55 59 62 62 63 68 82 77 87 84 77 70 69 67 64 66 67 66 62 58
69 71 71 67 73 74 72 75 75 77 75 70 68 65 62 64 57 64 63 66 75 83 87 87 83 80 72 67 68 69 68 65 62
67 68 66 68 74 76 78 77 76 76 76 59 59 70 69 67 72 68 62 66 68 72 85 92 92 88 82 73 67 68 70 70 68
68 74 66 70 75 77 76 78 79 83 80 82 81 80 75 75 76 76 73 69 68 74 76 87 88 84 85 83 75 69 68 74 71
72 74 72 67 72 73 76 79 84 83 82 87 89 90 85 80 73 74 70 70 71 69 68 74 75 78 89 91 85 81 73 72 74
84 79 77 74 75 80 79 80 83 87 83 79 86 92 92 88 78 72 73 68 76 75 70 67 71 79 86 84 86 86 83 77 72
96 85 81 81 83 83 84 81 85 86 90 88 78 88 88 93 90 77 71 71 67 73 70 68 65 68 75 81 86 85 84 78 74
96 97 96 94 95 94 92 92 86 88 89 89 93 95 95 92 96 95 85 72 71 73 71 67 70 71 74 81 82 76 75 75 74

GFSFLT1_sfc_rhum_105.txt.gz
RH
68 71 76 79 76 73 70 68 75 80 81 74 72 75 75 75 75 82 76 75 66 67 68 68 68 67 66 66 66 66 65 65 64
67 76 81 81 81 76 72 75 80 82 79 72 73 75 78 74 86 86 81 72 66 66 66 67 67 66 66 66 66 66 66 65 64
70 79 82 84 82 81 78 80 81 79 75 70 77 75 75 74 86 87 86 71 66 66 67 66 67 67 66 65 66 65 65 65 65
70 76 84 82 81 85 84 81 81 78 72 74 78 79 78 78 80 71 84 73 65 65 67 66 66 66 66 66 66 66 66 65 65
67 77 86 86 86 88 87 83 80 76 76 74 76 83 78 83 84 87 83 67 65 66 66 67 67 67 66 66 66 66 66 65 65
85 74 89 89 87 87 87 84 83 82 78 76 77 83 76 82 86 89 76 66 66 66 67 67 66 66 67 67 67 67 66 66 66
89 84 91 91 90 87 86 89 86 85 84 81 82 82 79 83 88 89 77 67 67 67 67 67 67 67 67 67 66 66 66 66 66
98 99 98 98 96 96 90 95 96 90 87 79 79 77 80 86 86 84 78 68 67 67 68 67 67 67 67 67 67 67 67 67 67
99 99 98 98 98 96 95 90 88 87 83 82 77 69 76 86 90 89 81 74 68 68 68 66 67 67 67 67 67 67 67 67 66
88 94 97 97 96 95 95 87 81 76 70 67 64 64 72 81 88 96 86 80 73 69 68 68 66 66 67 66 66 67 66 66 65
83 85 85 85 82 84 85 83 76 69 68 63 62 64 66 73 84 92 94 85 81 72 69 68 68 66 67 67 65 65 64 62 61
81 80 82 78 77 76 75 74 70 67 61 60 62 64 66 66 77 84 91 92 88 81 70 70 70 69 68 68 67 64 63 60 58
75 71 70 79 77 77 79 79 80 78 72 68 66 62 65 68 70 78 85 90 87 89 83 78 72 71 69 66 68 68 66 63 59
73 78 80 77 80 82 79 83 79 83 83 77 76 72 67 67 63 71 77 87 87 90 89 88 84 81 73 68 67 69 70 67 64
74 76 76 78 81 82 83 81 85 82 82 67 67 74 74 72 76 72 65 73 81 87 87 95 94 88 84 74 69 68 71 73 69
73 76 74 78 80 80 79 83 82 87 87 86 86 82 77 80 75 76 81 76 74 81 88 96 95 92 87 85 77 70 68 74 75
70 77 73 74 78 79 81 81 87 85 85 86 91 89 82 88 82 85 80 79 78 79 80 90 90 92 93 93 87 84 74 70 72
90 85 81 75 77 81 84 86 84 89 89 82 86 94 90 93 88 86 84 79 84 83 80 78 82 88 86 85 88 87 84 79 75
95 93 90 86 84 84 83 82 86 89 89 92 82 89 89 92 91 85 84 80 79 83 76 74 72 76 82 80 83 82 80 79 77
98 98 98 99 99 94 93 94 93 93 93 90 93 94 96 92 94 96 89 81 80 77 72 69 73 77 76 76 77 75 73 72 74

GFSFLT1_sfc_rhum_108.txt.gz
RH
73 73 76 80 77 78 70 79 82 79 79 78 74 75 77 79 86 87 78 78 66 67 68 67 66 67 66 66 66 66 65 65 64
73 74 78 77 76 73 77 81 79 78 78 75 75 76 80 86 92 88 84 75 66 66 67 66 66 66 66 66 66 66 65 66 65
74 78 82 80 73 75 80 81 78 76 77 74 75 78 80 82 91 90 87 73 66 66 67 67 67 65 66 66 66 66 66 65 65
76 86 85 84 82 83 84 81 76 75 76 76 79 82 84 88 85 77 88 74 66 66 66 66 66 66 66 66 66 66 65 65 65
86 89 88 88 89 88 87 82 75 76 78 80 82 84 85 92 90 88 85 68 66 66 67 66 66 66 66 67 67 66 66 65 65
76 92 93 92 90 89 85 81 79 78 78 83 84 81 87 93 92 91 77 67 67 67 66 66 66 67 67 67 67 66 66 66 66
72 91 93 91 92 91 86 82 82 81 82 86 84 83 88 92 92 91 76 67 67 67 67 68 67 67 67 66 67 66 66 66 67
97 99 99 98 96 98 97 96 94 85 84 83 86 83 90 95 93 86 79 69 68 68 68 68 68 67 68 68 68 67 68 67 67
99 99 99 98 98 96 96 98 95 91 88 86 83 81 88 93 94 92 82 74 69 69 68 68 67 67 67 67 68 67 67 67 67
98 98 98 98 98 96 96 94 90 90 86 85 74 79 86 89 94 97 87 82 74 69 68 68 68 67 67 67 68 67 66 66 65
94 98 98 98 98 97 96 91 87 83 77 72 71 74 82 87 92 96 94 86 81 72 70 69 68 68 68 67 67 66 64 64 62
87 89 96 95 91 91 91 90 82 78 67 68 69 71 77 82 88 92 96 93 88 82 71 70 70 69 69 69 66 65 63 60 58
88 87 87 87 86 87 87 86 82 79 74 71 68 68 72 75 82 89 92 96 92 90 84 79 73 71 70 67 69 68 66 64 60
82 82 83 84 84 88 84 88 84 87 86 79 80 78 71 73 71 82 88 92 93 95 91 89 86 82 74 69 68 71 71 68 65
78 85 84 84 85 90 88 86 89 86 85 73 74 79 78 75 78 77 73 84 88 91 93 95 95 90 85 75 70 69 73 74 71
75 80 82 85 83 86 84 85 86 90 90 87 85 82 76 76 76 75 80 79 80 92 92 95 97 96 88 87 78 73 71 73 78
73 74 76 80 84 84 85 85 91 86 89 89 94 90 82 92 84 89 82 85 84 85 86 93 95 94 96 94 89 86 77 72 72
82 82 78 80 82 82 85 85 85 90 94 85 83 95 92 94 90 90 92 88 91 89 88 89 90 87 91 87 90 87 85 80 76
91 90 90 85 87 87 85 83 85 86 90 93 86 91 90 93 87 90 90 88 87 90 83 74 75 73 78 83 84 81 78 78 77
98 98 98 98 96 96 94 95 93 90 90 89 94 95 96 93 94 95 92 85 83 80 79 78 75 74 73 81 75 75 73 71 71

GFSFLT1_sfc_rhum_111.txt.gz
RH
74 77 79 82 83 78 81 80 78 82 82 77 77 77 80 83 90 90 80 80 66 66 67 68 66 66 66 66 66 66 66 66 66
78 79 80 82 78 80 81 76 78 83 79 75 76 79 83 91 93 91 86 76 65 65 66 66 66 66 66 66 65 66 65 66 66
75 78 80 78 76 81 77 74 78 80 76 75 76 80 82 86 93 92 90 73 65 65 66 66 66 65 66 66 66 66 65 65 65
73 78 79 78 83 85 82 77 78 77 75 73 78 83 84 92 89 81 90 75 66 66 66 66 66 66 66 66 66 66 66 65 65
84 87 84 83 88 88 86 79 77 78 78 77 81 86 85 93 92 91 87 69 66 67 66 66 66 66 66 67 66 66 65 66 65
95 95 93 91 90 89 85 81 81 84 85 84 86 86 94 94 93 94 78 67 66 67 67 67 67 67 67 67 67 66 66 66 66
93 97 95 93 92 90 85 81 84 83 91 95 86 90 94 96 94 94 77 66 66 68 68 67 67 68 67 68 67 67 67 67 67
93 99 99 99 99 99 95 94 90 88 88 91 90 91 94 97 97 89 79 68 68 68 68 68 68 68 67 67 66 67 67 68 68
99 99 99 98 99 99 98 97 94 91 89 88 91 92 93 97 98 93 83 75 69 68 68 68 67 67 66 66 67 67 67 67 67
99 99 99 98 98 97 97 96 95 92 90 90 82 86 91 93 97 98 88 82 74 70 68 68 67 67 66 66 67 67 67 66 66
98 99 99 98 98 96 96 95 92 90 86 83 81 85 89 92 94 97 95 87 82 72 70 69 69 68 67 67 67 66 66 64 63
97 98 99 98 98 95 95 93 90 89 77 78 78 81 89 91 93 95 96 94 89 83 72 71 70 69 69 67 67 66 63 61 59
95 96 97 97 96 97 96 95 93 88 80 75 73 78 81 88 92 94 96 97 95 91 85 79 74 72 69 69 69 67 66 64 61
90 88 90 94 92 94 93 94 88 89 88 79 79 81 76 78 75 91 94 94 96 97 92 90 86 82 75 68 72 73 71 69 66
90 90 92 90 93 93 95 91 93 90 86 77 80 87 84 79 83 84 82 92 93 95 95 96 96 91 85 76 72 70 71 76 73
83 85 89 89 89 88 90 91 91 92 92 90 88 86 81 79 82 80 85 84 87 94 96 97 97 96 90 88 79 75 73 73 77
78 81 83 82 85 88 86 86 92 89 91 90 94 91 82 91 84 87 81 84 89 88 92 95 95 96 97 93 89 87 81 76 74
80 79 76 79 80 83 86 88 86 90 94 88 83 94 90 95 91 91 94 91 94 90 89 93 94 92 95 91 88 87 85 80 77
89 85 81 81 88 88 86 84 87 86 88 95 87 90 89 94 90 91 91 89 91 92 94 91 89 91 90 89 84 81 77 76 76
96 96 96 92 92 92 91 94 94 93 92 91 95 96 96 93 94 95 91 84 82 82 83 84 74 76 79 79 76 73 73 70 70

GFSFLT1_sfc_rhum_114.txt.gz
RH
80 84 86 82 84 84 82 82 82 82 79 78 76 78 81 84 92 92 80 80 66 66 66 67 66 66 66 66 66 66 66 66 66
80 85 86 83 86 82 79 80 81 80 78 77 76 80 83 93 94 92 88 77 65 65 66 66 66 66 66 66 66 66 66 66 65
79 83 83 83 83 78 78 80 80 78 76 75 78 81 83 88 94 92 90 73 65 65 66 66 66 66 66 66 66 66 65 66 66
79 82 81 84 84 81 83 83 78 77 74 75 80 83 85 94 92 84 91 74 66 66 66 66 66 66 66 66 66 66 66 65 65
83 84 82 87 87 84 83 83 78 76 74 78 82 86 86 94 93 94 88 69 66 66 66 66 66 67 67 67 66 66 66 65 66
91 92 89 91 90 85 84 83 84 86 85 84 86 86 96 95 96 96 78 68 67 67 68 67 68 68 68 67 67 66 66 66 66
96 95 95 93 92 88 83 82 86 89 96 96 87 96 95 96 95 95 77 67 67 68 68 68 68 68 68 67 67 67 67 67 67
98 96 99 99 98 98 94 92 90 91 95 95 94 94 95 97 97 89 78 68 67 68 69 69 69 68 68 68 67 67 67 67 68
99 98 99 99 99 98 97 97 94 92 91 92 92 92 95 97 98 94 83 75 69 68 68 68 68 67 66 67 67 67 67 68 67
99 100 99 99 99 98 98 96 96 94 92 91 90 92 92 93 98 98 89 82 74 69 69 68 68 67 66 67 67 67 66 66 66
98 99 99 99 98 97 97 96 96 95 91 89 88 91 92 92 94 97 95 88 82 72 69 69 69 68 68 68 68 67 66 64 63
98 99 99 98 97 95 96 94 93 92 82 84 85 88 92 93 94 95 96 94 90 83 72 70 70 69 67 67 69 67 65 63 60
98 98 98 98 98 97 96 95 94 93 87 80 80 85 88 92 94 95 96 96 95 92 86 80 74 71 69 69 67 69 68 66 62
96 97 98 97 98 97 95 95 93 93 91 83 82 82 82 84 82 94 94 95 96 97 92 91 88 83 74 68 73 72 71 70 68
92 94 95 95 97 97 97 93 94 91 88 80 82 90 88 84 85 86 87 95 94 96 96 96 96 92 86 78 72 73 76 75 73
92 91 92 93 88 86 91 94 93 95 94 92 90 89 86 85 84 81 88 88 92 94 96 97 97 97 92 89 81 79 79 75 76
86 90 90 89 90 94 93 90 95 93 94 93 94 92 81 86 89 88 82 84 86 89 93 95 95 96 94 94 91 88 83 80 76
85 86 85 87 88 90 91 88 89 93 96 90 84 93 90 90 91 93 93 91 94 93 90 92 94 95 95 92 91 88 82 80 77
90 89 88 89 90 93 89 84 90 90 92 97 88 89 82 90 87 89 90 88 92 93 94 94 95 95 96 92 88 82 77 75 74
96 92 91 95 96 92 95 94 91 94 94 92 97 96 96 93 93 90 88 83 82 85 86 86 87 82 85 85 88 75 72 70 70

GFSFLT1_sfc_rhum_117.txt.gz
RH
80 82 81 83 85 84 82 82 82 81 79 76 76 79 81 76 61 59 62 56 64 66 66 66 66 66 66 66 66 66 65 65 65
85 83 85 87 86 85 82 82 81 80 78 76 77 80 82 60 60 60 58 58 65 65 66 66 66 67 66 66 66 66 65 64 65
86 84 87 87 83 84 83 82 80 79 76 75 79 82 81 64 61 62 58 69 65 66 66 66 66 66 66 66 66 66 66 66 65
84 84 87 85 84 84 85 81 78 76 74 77 81 84 84 61 60 59 56 75 65 66 66 67 66 66 66 67 66 66 66 66 65
86 86 88 85 85 88 86 83 76 74 77 80 83 86 84 59 62 60 58 71 66 66 67 67 67 67 67 67 67 66 66 65 64
72 79 92 87 86 87 86 83 80 84 86 84 86 82 61 59 61 59 77 68 66 67 68 68 68 68 68 67 67 66 66 66 66
68 83 95 90 89 88 87 85 86 75 57 62 75 57 60 60 62 58 77 67 66 68 69 69 68 68 68 67 67 67 67 67 67
69 81 86 77 82 70 73 71 63 64 58 57 55 58 58 59 61 68 78 68 67 67 69 69 68 68 68 67 68 68 68 67 67
77 81 89 82 73 72 67 63 64 64 62 56 56 56 58 60 62 68 83 74 68 68 68 68 68 67 67 67 67 68 68 67 67
80 85 89 83 75 66 67 63 63 62 60 60 59 60 59 62 62 62 88 82 73 69 68 68 68 67 67 67 67 66 66 66 65
87 88 85 82 73 66 63 63 64 64 62 62 60 60 61 60 64 62 64 88 81 72 69 69 68 68 67 68 68 67 66 64 64
87 86 84 79 72 67 67 67 66 64 60 59 60 60 59 62 63 64 64 68 91 83 71 70 70 69 66 66 69 68 67 65 62
83 83 80 76 72 67 66 67 67 65 61 56 56 58 61 60 60 63 64 67 64 81 86 80 73 71 68 70 67 70 69 67 65
76 78 78 74 72 70 68 70 64 67 66 63 57 56 59 60 61 63 65 66 68 66 82 91 89 83 75 70 73 71 72 71 70
79 78 77 76 74 73 73 71 72 67 65 62 61 60 59 58 58 57 61 63 68 67 70 67 69 92 86 78 73 73 78 76 75
79 79 77 77 74 72 71 74 75 75 72 69 67 66 64 64 62 58 55 60 64 65 65 66 66 66 92 88 82 78 79 74 80
78 76 77 77 76 74 77 75 77 75 75 71 73 73 61 63 66 64 61 58 60 63 66 65 66 67 66 74 90 89 84 81 79
79 78 75 75 74 79 79 77 76 76 78 71 68 78 71 68 66 72 69 65 61 60 62 66 71 67 66 78 82 92 83 78 76
84 84 80 79 84 80 80 79 81 79 81 85 76 78 68 72 68 76 74 73 80 71 67 67 87 84 78 88 90 87 84 78 73
85 86 86 88 88 85 85 90 87 84 85 82 86 82 83 79 91 81 85 71 79 80 72 84 83 72 82 85 89 82 73 70 71

GFSFLT1_sfc_rhum_120.txt.gz
RH
80 80 84 86 86 85 83 81 80 80 78 76 77 77 74 67 43 47 52 50 64 65 66 67 66 66 66 66 66 64 66 65 65
81 84 87 87 86 85 82 81 81 79 76 75 78 76 77 41 43 44 48 54 65 65 65 67 66 66 66 66 66 65 64 66 68
85 87 87 87 86 85 83 81 80 78 74 76 79 79 70 46 45 47 50 68 65 65 66 67 66 67 66 66 66 66 65 65 64
86 88 88 87 86 86 86 81 78 75 76 79 82 82 77 42 43 43 48 75 65 66 66 66 66 66 66 66 66 66 64 65 65
88 90 87 87 86 87 85 81 76 75 78 81 84 84 78 42 45 43 54 71 65 66 66 66 66 66 67 67 67 66 65 64 65
72 74 91 90 89 88 85 80 79 85 86 84 85 83 38 39 42 45 76 68 66 66 67 67 67 67 67 67 67 66 66 66 66
49 80 93 91 91 88 84 81 83 67 42 51 71 37 38 40 43 50 77 66 66 68 68 68 68 68 67 67 67 67 67 67 67
54 69 64 66 79 60 63 62 44 40 35 37 36 36 37 39 43 63 77 67 66 68 69 68 68 68 67 67 67 67 67 67 67
46 65 52 55 50 51 49 44 45 44 40 37 36 37 39 39 42 61 82 73 68 67 68 68 67 67 67 66 67 67 66 66 66
43 74 53 48 47 48 46 44 45 44 42 42 41 43 42 43 43 45 85 80 72 68 68 68 68 67 67 67 67 66 66 65 64
51 83 64 49 46 44 43 44 45 46 43 44 44 44 46 45 47 44 56 86 80 71 70 68 68 68 68 68 68 67 66 64 63
69 82 67 51 46 43 43 45 46 46 46 46 44 45 44 46 47 47 45 59 90 83 72 71 70 70 66 68 69 68 67 65 63
61 68 63 51 50 47 47 47 48 47 47 45 45 45 46 45 45 48 47 50 48 79 85 81 74 72 68 69 68 71 70 69 67
51 53 55 53 53 51 47 47 46 51 50 49 46 47 48 49 47 46 47 50 53 50 83 89 89 84 75 70 72 71 72 73 72
54 55 55 56 56 54 51 50 48 45 48 48 48 47 47 45 44 43 44 46 53 52 53 57 63 92 87 78 73 73 76 76 76
58 59 61 58 56 54 51 50 54 57 53 52 53 54 50 50 47 45 43 44 48 48 49 51 50 56 88 88 82 79 77 80 78
60 60 61 60 56 54 54 60 61 53 58 59 62 59 50 50 50 48 49 47 44 46 48 48 51 51 51 63 91 89 84 81 79
62 61 57 58 56 60 63 60 63 67 66 59 57 63 56 49 48 52 49 50 50 58 48 48 50 49 52 67 81 90 88 82 78
66 64 57 58 61 62 63 64 69 66 68 67 61 63 60 67 62 52 52 54 67 70 71 64 56 60 62 78 90 87 84 82 78
69 71 70 71 68 66 68 74 75 68 75 71 73 67 71 67 75 76 63 59 72 77 75 67 73 68 83 91 92 84 75 74 75